Observation data for Doole 3WNW on 02/14/2020      Previous  Date  Next       Current Mesonet Observations  Soil Data  Daily Summary Page  Observations in Plain Language
KDO2 140600Z 07005KT M01/M02 A3037 RMK A01 T10121023  RH  092%=      5-min Rain = 0
KDO2 140601Z 07005KT M01/M02 A3037 RMK A01 T10121023  RH  092%=      5-min Rain = 0
KDO2 140602Z 08005KT M01/M02 A3037 RMK A01 T10121023  RH  092%=      5-min Rain = 0
KDO2 140603Z 08005KT M01/M02 A3037 RMK A01 T10121022  RH  093%=      5-min Rain = 0
KDO2 140604Z 08005KT M01/M02 A3037 RMK A01 T10121023  RH  093%=      5-min Rain = 0
KDO2 140605Z 09005KT M01/M02 A3037 RMK A01 T10121023  RH  092%=      5-min Rain = 0
KDO2 140606Z 09005KT M01/M02 A3037 RMK A01 T10121023  RH  092%=      5-min Rain = 0
KDO2 140607Z 09005KT M01/M02 A3037 RMK A01 T10121023  RH  092%=      5-min Rain = 0
KDO2 140608Z 09005KT M01/M02 A3037 RMK A01 T10131023  RH  092%=      5-min Rain = 0
KDO2 140609Z 08005KT M01/M02 A3037 RMK A01 T10131023  RH  093%=      5-min Rain = 0
KDO2 140610Z 09005KT M01/M02 A3037 RMK A01 T10131023  RH  093%=      5-min Rain = 0
KDO2 140611Z 08005KT M01/M02 A3037 RMK A01 T10131023  RH  093%=      5-min Rain = 0
KDO2 140612Z 09005KT M01/M02 A3037 RMK A01 T10131023  RH  093%=      5-min Rain = 0
KDO2 140613Z 09004KT M01/M02 A3037 RMK A01 T10121023  RH  093%=      5-min Rain = 0
KDO2 140614Z 09004KT M01/M02 A3037 RMK A01 T10121023  RH  093%=      5-min Rain = 0
KDO2 140615Z 08004KT M01/M02 A3037 RMK A01 T10121023  RH  093%=      5-min Rain = 0
KDO2 140616Z 09004KT M01/M02 A3037 RMK A01 T10121023  RH  093%=      5-min Rain = 0
KDO2 140617Z 09004KT M01/M02 A3037 RMK A01 T10121023  RH  092%=      5-min Rain = 0
KDO2 140618Z 09003KT M01/M02 A3037 RMK A01 T10121023  RH  092%=      5-min Rain = 0
KDO2 140619Z 10003KT M01/M02 A3037 RMK A01 T10121023  RH  092%=      5-min Rain = 0
KDO2 140620Z 10003KT M01/M02 A3037 RMK A01 T10121023  RH  092%=      5-min Rain = 0
KDO2 140621Z 10003KT M01/M02 A3037 RMK A01 T10121023  RH  092%=      5-min Rain = 0
KDO2 140622Z 10003KT M01/M02 A3037 RMK A01 T10121023  RH  092%=      5-min Rain = 0
KDO2 140623Z 11003KT M01/M02 A3037 RMK A01 T10121023  RH  092%=      5-min Rain = 0
KDO2 140624Z 11003KT M01/M02 A3037 RMK A01 T10131024  RH  092%=      5-min Rain = 0
KDO2 140625Z 11004KT M01/M03 A3037 RMK A01 T10141026  RH  092%=      5-min Rain = 0
KDO2 140626Z 11004KT M02/M03 A3037 RMK A01 T10151026  RH  092%=      5-min Rain = 0
KDO2 140627Z 11004KT M02/M03 A3037 RMK A01 T10151026  RH  092%=      5-min Rain = 0
KDO2 140628Z 10004KT M02/M03 A3037 RMK A01 T10161027  RH  092%=      5-min Rain = 0
KDO2 140629Z 10004KT M02/M03 A3037 RMK A01 T10161027  RH  093%=      5-min Rain = 0
KDO2 140630Z 10004KT M02/M03 A3037 RMK A01 T10161026  RH  093%=      5-min Rain = 0
KDO2 140631Z 10004KT M02/M03 A3037 RMK A01 T10161026  RH  093%=      5-min Rain = 0
KDO2 140632Z 10004KT M02/M03 A3037 RMK A01 T10161026  RH  093%=      5-min Rain = 0
KDO2 140633Z 10004KT M02/M03 A3037 RMK A01 T10161026  RH  093%=      5-min Rain = 0
KDO2 140634Z 10004KT M02/M03 A3037 RMK A01 T10161026  RH  093%=      5-min Rain = 0
KDO2 140635Z 11004KT M02/M03 A3037 RMK A01 T10161025  RH  093%=      5-min Rain = 0
KDO2 140636Z 11004KT M02/M03 A3037 RMK A01 T10161026  RH  093%=      5-min Rain = 0
KDO2 140637Z 12004KT M02/M03 A3037 RMK A01 T10161026  RH  093%=      5-min Rain = 0
KDO2 140638Z 12004KT M02/M03 A3037 RMK A01 T10161026  RH  093%=      5-min Rain = 0
KDO2 140639Z 12004KT M02/M03 A3037 RMK A01 T10171027  RH  093%=      5-min Rain = 0
KDO2 140640Z 12004KT M02/M03 A3036 RMK A01 T10171027  RH  093%=      5-min Rain = 0
KDO2 140641Z 12004KT M02/M03 A3036 RMK A01 T10181027  RH  093%=      5-min Rain = 0
KDO2 140642Z 11004KT M02/M03 A3036 RMK A01 T10181027  RH  093%=      5-min Rain = 0
KDO2 140643Z 12003KT M02/M03 A3037 RMK A01 T10181027  RH  093%=      5-min Rain = 0
KDO2 140644Z 12003KT M02/M03 A3036 RMK A01 T10181027  RH  093%=      5-min Rain = 0
KDO2 140645Z 12004KT M02/M03 A3036 RMK A01 T10181027  RH  093%=      5-min Rain = 0
KDO2 140646Z 12004KT M02/M03 A3036 RMK A01 T10181027  RH  094%=      5-min Rain = 0
KDO2 140647Z 11004KT M02/M03 A3036 RMK A01 T10191028  RH  094%=      5-min Rain = 0
KDO2 140648Z 11004KT M02/M03 A3036 RMK A01 T10191028  RH  094%=      5-min Rain = 0
KDO2 140649Z 11004KT M02/M03 A3036 RMK A01 T10191028  RH  094%=      5-min Rain = 0
KDO2 140650Z 11004KT M02/M03 A3036 RMK A01 T10191028  RH  094%=      5-min Rain = 0
KDO2 140651Z 11004KT M02/M03 A3036 RMK A01 T10191028  RH  094%=      5-min Rain = 0
KDO2 140652Z 11004KT M02/M03 A3036 RMK A01 T10201028  RH  094%=      5-min Rain = 0
KDO2 140653Z 12005KT M02/M03 A3036 RMK A01 T10201028  RH  094%=      5-min Rain = 0
KDO2 140654Z 11005KT M02/M03 A3036 RMK A01 T10201029  RH  094%=      5-min Rain = 0
KDO2 140655Z 12004KT M02/M03 A3036 RMK A01 T10201029  RH  094%=      5-min Rain = 0
KDO2 140656Z 12004KT M02/M03 A3037 RMK A01 T10201029  RH  094%=      5-min Rain = 0
KDO2 140657Z 12004KT M02/M03 A3037 RMK A01 T10211029  RH  094%=      5-min Rain = 0
KDO2 140658Z 12004KT M02/M03 A3037 RMK A01 T10211029  RH  094%=      5-min Rain = 0
KDO2 140659Z 13004KT M02/M03 A3037 RMK A01 T10211029  RH  094%=      5-min Rain = 0
KDO2 140700Z 13004KT M02/M03 A3037 RMK A01 T10211029  RH  094%=      5-min Rain = 0
KDO2 140701Z 14004KT M02/M03 A3037 RMK A01 T10211029  RH  094%=      5-min Rain = 0
KDO2 140702Z 14004KT M02/M03 A3037 RMK A01 T10211029  RH  094%=      5-min Rain = 0
KDO2 140703Z 14004KT M02/M03 A3037 RMK A01 T10211029  RH  094%=      5-min Rain = 0
KDO2 140704Z 14004KT M02/M03 A3037 RMK A01 T10211029  RH  094%=      5-min Rain = 0
KDO2 140705Z 15004KT M02/M03 A3037 RMK A01 T10211029  RH  094%=      5-min Rain = 0
KDO2 140706Z 15004KT M02/M03 A3037 RMK A01 T10211029  RH  094%=      5-min Rain = 0
KDO2 140707Z 17004KT M02/M03 A3037 RMK A01 T10221030  RH  094%=      5-min Rain = 0
KDO2 140708Z 17005KT M02/M03 A3037 RMK A01 T10211029  RH  094%=      5-min Rain = 0
KDO2 140709Z 16005KT M02/M03 A3037 RMK A01 T10221030  RH  094%=      5-min Rain = 0
KDO2 140710Z 17005KT M02/M03 A3037 RMK A01 T10221030  RH  094%=      5-min Rain = 0
KDO2 140711Z 16005KT M02/M03 A3037 RMK A01 T10231031  RH  094%=      5-min Rain = 0
KDO2 140712Z 17005KT M02/M03 A3037 RMK A01 T10231031  RH  094%=      5-min Rain = 0
KDO2 140713Z 17005KT M02/M03 A3037 RMK A01 T10231032  RH  094%=      5-min Rain = 0
KDO2 140714Z 16004KT M02/M03 A3037 RMK A01 T10231031  RH  094%=      5-min Rain = 0
KDO2 140715Z 16004KT M02/M03 A3037 RMK A01 T10231031  RH  094%=      5-min Rain = 0
KDO2 140716Z 16004KT M02/M03 A3037 RMK A01 T10231031  RH  094%=      5-min Rain = 0
KDO2 140717Z 17004KT M02/M03 A3037 RMK A01 T10231031  RH  095%=      5-min Rain = 0
KDO2 140718Z 16004KT M02/M03 A3037 RMK A01 T10231030  RH  095%=      5-min Rain = 0
KDO2 140719Z 17003KT M02/M03 A3037 RMK A01 T10231030  RH  095%=      5-min Rain = 0
KDO2 140720Z 16002KT M02/M03 A3037 RMK A01 T10231031  RH  095%=      5-min Rain = 0
KDO2 140721Z 17003KT M02/M03 A3037 RMK A01 T10231031  RH  095%=      5-min Rain = 0
KDO2 140722Z 16003KT M02/M03 A3037 RMK A01 T10231031  RH  095%=      5-min Rain = 0
KDO2 140723Z 17003KT M02/M03 A3037 RMK A01 T10231031  RH  095%=      5-min Rain = 0
KDO2 140724Z 17003KT M02/M03 A3037 RMK A01 T10231031  RH  095%=      5-min Rain = 0
KDO2 140725Z 17003KT M02/M03 A3037 RMK A01 T10231031  RH  095%=      5-min Rain = 0
KDO2 140726Z 16003KT M02/M03 A3037 RMK A01 T10241031  RH  095%=      5-min Rain = 0
KDO2 140727Z 16003KT M02/M03 A3037 RMK A01 T10231030  RH  095%=      5-min Rain = 0
KDO2 140728Z 16003KT M02/M03 A3037 RMK A01 T10231031  RH  095%=      5-min Rain = 0
KDO2 140729Z 17003KT M02/M03 A3037 RMK A01 T10231031  RH  095%=      5-min Rain = 0
KDO2 140730Z 16003KT M02/M03 A3037 RMK A01 T10231031  RH  095%=      5-min Rain = 0
KDO2 140731Z 16003KT M02/M03 A3037 RMK A01 T10241031  RH  095%=      5-min Rain = 0
KDO2 140732Z 16002KT M02/M03 A3037 RMK A01 T10241031  RH  095%=      5-min Rain = 0
KDO2 140733Z 16002KT M02/M03 A3037 RMK A01 T10241032  RH  095%=      5-min Rain = 0
KDO2 140734Z 16002KT M02/M03 A3037 RMK A01 T10241032  RH  095%=      5-min Rain = 0
KDO2 140735Z 16002KT M03/M03 A3038 RMK A01 T10251032  RH  095%=      5-min Rain = 0
KDO2 140736Z 17003KT M03/M03 A3038 RMK A01 T10251032  RH  095%=      5-min Rain = 0
KDO2 140737Z 17003KT M02/M03 A3038 RMK A01 T10241032  RH  095%=      5-min Rain = 0
KDO2 140738Z 17003KT M03/M03 A3038 RMK A01 T10251032  RH  095%=      5-min Rain = 0
KDO2 140739Z 17004KT M02/M03 A3038 RMK A01 T10241031  RH  095%=      5-min Rain = 0
KDO2 140740Z 17004KT M02/M03 A3037 RMK A01 T10241031  RH  095%=      5-min Rain = 0
KDO2 140741Z 17004KT M02/M03 A3037 RMK A01 T10241031  RH  095%=      5-min Rain = 0
KDO2 140742Z 17004KT M02/M03 A3037 RMK A01 T10241031  RH  095%=      5-min Rain = 0
KDO2 140743Z 16004KT M02/M03 A3037 RMK A01 T10241032  RH  095%=      5-min Rain = 0
KDO2 140744Z 16004KT M03/M03 A3037 RMK A01 T10251032  RH  095%=      5-min Rain = 0
KDO2 140745Z 16004KT M03/M03 A3037 RMK A01 T10251033  RH  095%=      5-min Rain = 0
KDO2 140746Z 16004KT M03/M03 A3037 RMK A01 T10261033  RH  094%=      5-min Rain = 0
KDO2 140747Z 16004KT M03/M03 A3037 RMK A01 T10261034  RH  094%=      5-min Rain = 0
KDO2 140748Z 16004KT M03/M03 A3037 RMK A01 T10261034  RH  094%=      5-min Rain = 0
KDO2 140749Z 16004KT M03/M03 A3037 RMK A01 T10271034  RH  095%=      5-min Rain = 0
KDO2 140750Z 15003KT M03/M03 A3037 RMK A01 T10271034  RH  095%=      5-min Rain = 0
KDO2 140751Z 14003KT M03/M03 A3037 RMK A01 T10271034  RH  095%=      5-min Rain = 0
KDO2 140752Z 13003KT M03/M03 A3037 RMK A01 T10261034  RH  095%=      5-min Rain = 0
KDO2 140753Z 14003KT M03/M03 A3037 RMK A01 T10271034  RH  095%=      5-min Rain = 0
KDO2 140754Z 14003KT M03/M03 A3037 RMK A01 T10261033  RH  095%=      5-min Rain = 0
KDO2 140755Z 15003KT M03/M03 A3037 RMK A01 T10261033  RH  095%=      5-min Rain = 0
KDO2 140756Z 15003KT M03/M03 A3037 RMK A01 T10251032  RH  095%=      5-min Rain = 0
KDO2 140757Z 15003KT M03/M03 A3037 RMK A01 T10251031  RH  095%=      5-min Rain = 0
KDO2 140758Z 15003KT M03/M03 A3037 RMK A01 T10251032  RH  095%=      5-min Rain = 0
KDO2 140759Z 14002KT M03/M03 A3037 RMK A01 T10251032  RH  095%=      5-min Rain = 0
KDO2 140800Z 14003KT M03/M03 A3037 RMK A01 T10251032  RH  095%=      5-min Rain = 0
KDO2 140801Z 14002KT M03/M03 A3037 RMK A01 T10251032  RH  095%=      5-min Rain = 0
KDO2 140802Z 14002KT M03/M03 A3037 RMK A01 T10251032  RH  095%=      5-min Rain = 0
KDO2 140803Z 15003KT M03/M03 A3037 RMK A01 T10251032  RH  095%=      5-min Rain = 0
KDO2 140804Z 15003KT M02/M03 A3037 RMK A01 T10241031  RH  095%=      5-min Rain = 0
KDO2 140805Z 15003KT M02/M03 A3037 RMK A01 T10241031  RH  095%=      5-min Rain = 0
KDO2 140806Z 14002KT M02/M03 A3037 RMK A01 T10241031  RH  095%=      5-min Rain = 0
KDO2 140807Z 14002KT M02/M03 A3037 RMK A01 T10241031  RH  095%=      5-min Rain = 0
KDO2 140808Z 14003KT M02/M03 A3037 RMK A01 T10241030  RH  095%=      5-min Rain = 0
KDO2 140809Z 14003KT M02/M03 A3037 RMK A01 T10241031  RH  095%=      5-min Rain = 0
KDO2 140810Z 14003KT M02/M03 A3037 RMK A01 T10241031  RH  095%=      5-min Rain = 0
KDO2 140811Z 14002KT M02/M03 A3037 RMK A01 T10241031  RH  095%=      5-min Rain = 0
KDO2 140812Z 14002KT M02/M03 A3037 RMK A01 T10241031  RH  095%=      5-min Rain = 0
KDO2 140813Z 13002KT M02/M03 A3036 RMK A01 T10241030  RH  095%=      5-min Rain = 0
KDO2 140814Z 13002KT M02/M03 A3036 RMK A01 T10241030  RH  095%=      5-min Rain = 0
KDO2 140815Z 12002KT M02/M03 A3036 RMK A01 T10241031  RH  095%=      5-min Rain = 0
KDO2 140816Z 12002KT M02/M03 A3036 RMK A01 T10241031  RH  095%=      5-min Rain = 0
KDO2 140817Z 12002KT M02/M03 A3036 RMK A01 T10231030  RH  095%=      5-min Rain = 0
KDO2 140818Z 12002KT M02/M03 A3036 RMK A01 T10231030  RH  095%=      5-min Rain = 0
KDO2 140819Z 12002KT M02/M03 A3036 RMK A01 T10231030  RH  095%=      5-min Rain = 0
KDO2 140820Z 12002KT M02/M03 A3036 RMK A01 T10231030  RH  095%=      5-min Rain = 0
KDO2 140821Z 12002KT M02/M03 A3036 RMK A01 T10231030  RH  095%=      5-min Rain = 0
KDO2 140822Z 13002KT M02/M03 A3036 RMK A01 T10231030  RH  095%=      5-min Rain = 0
KDO2 140823Z 13002KT M02/M03 A3036 RMK A01 T10231029  RH  095%=      5-min Rain = 0
KDO2 140824Z 13002KT M02/M03 A3036 RMK A01 T10231030  RH  095%=      5-min Rain = 0
KDO2 140825Z 12002KT M02/M03 A3036 RMK A01 T10231030  RH  095%=      5-min Rain = 0
KDO2 140826Z 12002KT M02/M03 A3036 RMK A01 T10231030  RH  095%=      5-min Rain = 0
KDO2 140827Z 12002KT M02/M03 A3036 RMK A01 T10231030  RH  095%=      5-min Rain = 0
KDO2 140828Z 12002KT M02/M03 A3036 RMK A01 T10241030  RH  095%=      5-min Rain = 0
KDO2 140829Z 12002KT M02/M03 A3036 RMK A01 T10241031  RH  095%=      5-min Rain = 0
KDO2 140830Z 12002KT M02/M03 A3036 RMK A01 T10241031  RH  095%=      5-min Rain = 0
KDO2 140831Z 12002KT M03/M03 A3036 RMK A01 T10251032  RH  095%=      5-min Rain = 0
KDO2 140832Z 12002KT M03/M03 A3036 RMK A01 T10251031  RH  095%=      5-min Rain = 0
KDO2 140833Z 12002KT M03/M03 A3036 RMK A01 T10251032  RH  095%=      5-min Rain = 0
KDO2 140834Z 11002KT M03/M03 A3036 RMK A01 T10251032  RH  095%=      5-min Rain = 0
KDO2 140835Z 11002KT M03/M03 A3036 RMK A01 T10251032  RH  095%=      5-min Rain = 0
KDO2 140836Z 11002KT M03/M03 A3036 RMK A01 T10251032  RH  095%=      5-min Rain = 0
KDO2 140837Z 11002KT M03/M03 A3036 RMK A01 T10251032  RH  095%=      5-min Rain = 0
KDO2 140838Z 11003KT M03/M03 A3036 RMK A01 T10251032  RH  095%=      5-min Rain = 0
KDO2 140839Z 11003KT M03/M03 A3036 RMK A01 T10251031  RH  095%=      5-min Rain = 0
KDO2 140840Z 11003KT M03/M03 A3036 RMK A01 T10251031  RH  095%=      5-min Rain = 0
KDO2 140841Z 11003KT M03/M03 A3036 RMK A01 T10251031  RH  095%=      5-min Rain = 0
KDO2 140842Z 11003KT M03/M03 A3036 RMK A01 T10251031  RH  095%=      5-min Rain = 0
KDO2 140843Z 11002KT M03/M03 A3036 RMK A01 T10251031  RH  095%=      5-min Rain = 0
KDO2 140844Z 11002KT M03/M03 A3036 RMK A01 T10251031  RH  095%=      5-min Rain = 0
KDO2 140845Z 11002KT M03/M03 A3036 RMK A01 T10251032  RH  095%=      5-min Rain = 0
KDO2 140846Z 11002KT M03/M03 A3036 RMK A01 T10251031  RH  095%=      5-min Rain = 0
KDO2 140847Z 12003KT M03/M03 A3036 RMK A01 T10261032  RH  095%=      5-min Rain = 0
KDO2 140848Z 12002KT M03/M03 A3036 RMK A01 T10261032  RH  095%=      5-min Rain = 0
KDO2 140849Z 12002KT M03/M03 A3036 RMK A01 T10251032  RH  095%=      5-min Rain = 0
KDO2 140850Z 12003KT M03/M03 A3036 RMK A01 T10261032  RH  096%=      5-min Rain = 0
KDO2 140851Z 12002KT M03/M03 A3036 RMK A01 T10261032  RH  095%=      5-min Rain = 0
KDO2 140852Z 12002KT M03/M03 A3036 RMK A01 T10261032  RH  096%=      5-min Rain = 0
KDO2 140853Z 11002KT M03/M03 A3036 RMK A01 T10261032  RH  096%=      5-min Rain = 0
KDO2 140854Z 11002KT M03/M03 A3036 RMK A01 T10261033  RH  095%=      5-min Rain = 0
KDO2 140855Z 11002KT M03/M03 A3036 RMK A01 T10271033  RH  095%=      5-min Rain = 0
KDO2 140856Z 11002KT M03/M03 A3036 RMK A01 T10271034  RH  095%=      5-min Rain = 0
KDO2 140857Z 12002KT M03/M03 A3036 RMK A01 T10271034  RH  095%=      5-min Rain = 0
KDO2 140858Z 12002KT M03/M03 A3036 RMK A01 T10271033  RH  096%=      5-min Rain = 0
KDO2 140859Z 12002KT M03/M03 A3036 RMK A01 T10271033  RH  096%=      5-min Rain = 0
KDO2 140900Z 12002KT M03/M03 A3036 RMK A01 T10261032  RH  096%=      5-min Rain = 0
KDO2 140901Z 12002KT M03/M03 A3036 RMK A01 T10261032  RH  096%=      5-min Rain = 0
KDO2 140902Z 12002KT M03/M03 A3036 RMK A01 T10261032  RH  096%=      5-min Rain = 0
KDO2 140903Z 11002KT M03/M03 A3036 RMK A01 T10261032  RH  096%=      5-min Rain = 0
KDO2 140904Z 11002KT M03/M03 A3036 RMK A01 T10261032  RH  096%=      5-min Rain = 0
KDO2 140905Z 11002KT M03/M03 A3036 RMK A01 T10261032  RH  096%=      5-min Rain = 0
KDO2 140906Z 11002KT M03/M03 A3036 RMK A01 T10261031  RH  096%=      5-min Rain = 0
KDO2 140907Z 11002KT M03/M03 A3036 RMK A01 T10261031  RH  096%=      5-min Rain = 0
KDO2 140908Z 11002KT M03/M03 A3036 RMK A01 T10251031  RH  096%=      5-min Rain = 0
KDO2 140909Z 11002KT M03/M03 A3036 RMK A01 T10251031  RH  096%=      5-min Rain = 0
KDO2 140910Z 10002KT M03/M03 A3036 RMK A01 T10251031  RH  096%=      5-min Rain = 0
KDO2 140911Z 09002KT M03/M03 A3036 RMK A01 T10251030  RH  096%=      5-min Rain = 0
KDO2 140912Z 09002KT M03/M03 A3036 RMK A01 T10251030  RH  096%=      5-min Rain = 0
KDO2 140913Z 09002KT M03/M03 A3036 RMK A01 T10251030  RH  096%=      5-min Rain = 0
KDO2 140914Z 09002KT M02/M03 A3036 RMK A01 T10241030  RH  096%=      5-min Rain = 0
KDO2 140915Z 09002KT M03/M03 A3036 RMK A01 T10251030  RH  096%=      5-min Rain = 0
KDO2 140916Z 09002KT M03/M03 A3035 RMK A01 T10251031  RH  096%=      5-min Rain = 0
KDO2 140917Z 09002KT M03/M03 A3035 RMK A01 T10251031  RH  096%=      5-min Rain = 0
KDO2 140918Z 09002KT M03/M03 A3035 RMK A01 T10261031  RH  096%=      5-min Rain = 0
KDO2 140919Z 09002KT M03/M03 A3035 RMK A01 T10261032  RH  096%=      5-min Rain = 0
KDO2 140920Z 09002KT M03/M03 A3035 RMK A01 T10271033  RH  096%=      5-min Rain = 0
KDO2 140921Z 09002KT M03/M03 A3035 RMK A01 T10271033  RH  096%=      5-min Rain = 0
KDO2 140922Z 09002KT M03/M03 A3035 RMK A01 T10261032  RH  096%=      5-min Rain = 0
KDO2 140923Z 09002KT M03/M03 A3035 RMK A01 T10261032  RH  096%=      5-min Rain = 0
KDO2 140924Z 09002KT M03/M03 A3035 RMK A01 T10261032  RH  096%=      5-min Rain = 0
KDO2 140925Z 09002KT M03/M03 A3035 RMK A01 T10261031  RH  096%=      5-min Rain = 0
KDO2 140926Z 09003KT M03/M03 A3035 RMK A01 T10261031  RH  096%=      5-min Rain = 0
KDO2 140927Z 09003KT M03/M03 A3036 RMK A01 T10261031  RH  096%=      5-min Rain = 0
KDO2 140928Z 09003KT M03/M03 A3036 RMK A01 T10261031  RH  096%=      5-min Rain = 0
KDO2 140929Z 08003KT M03/M03 A3036 RMK A01 T10261031  RH  096%=      5-min Rain = 0
KDO2 140930Z 08003KT M03/M03 A3036 RMK A01 T10251031  RH  096%=      5-min Rain = 0
KDO2 140931Z 08003KT M03/M03 A3036 RMK A01 T10261031  RH  096%=      5-min Rain = 0
KDO2 140932Z 08003KT M03/M03 A3036 RMK A01 T10261031  RH  096%=      5-min Rain = 0
KDO2 140933Z 09003KT M03/M03 A3036 RMK A01 T10261031  RH  096%=      5-min Rain = 0
KDO2 140934Z 09003KT M03/M03 A3036 RMK A01 T10261031  RH  096%=      5-min Rain = 0
KDO2 140935Z 09003KT M03/M03 A3036 RMK A01 T10261031  RH  096%=      5-min Rain = 0
KDO2 140936Z 09004KT M03/M03 A3036 RMK A01 T10261032  RH  096%=      5-min Rain = 0
KDO2 140937Z 09003KT M03/M03 A3035 RMK A01 T10261032  RH  096%=      5-min Rain = 0
KDO2 140938Z 09003KT M03/M03 A3035 RMK A01 T10261032  RH  096%=      5-min Rain = 0
KDO2 140939Z 09003KT M03/M03 A3035 RMK A01 T10271032  RH  096%=      5-min Rain = 0
KDO2 140940Z 09003KT M03/M03 A3035 RMK A01 T10271033  RH  096%=      5-min Rain = 0
KDO2 140941Z 09004KT M03/M03 A3035 RMK A01 T10271033  RH  096%=      5-min Rain = 0
KDO2 140942Z 09004KT M03/M03 A3035 RMK A01 T10271033  RH  096%=      5-min Rain = 0
KDO2 140943Z 09004KT M03/M03 A3035 RMK A01 T10281033  RH  096%=      5-min Rain = 0
KDO2 140944Z 09004KT M03/M03 A3035 RMK A01 T10281034  RH  096%=      5-min Rain = 0
KDO2 140945Z 10004KT M03/M03 A3035 RMK A01 T10281034  RH  096%=      5-min Rain = 0
KDO2 140946Z 10004KT M03/M03 A3035 RMK A01 T10291034  RH  096%=      5-min Rain = 0
KDO2 140947Z 10004KT M03/M03 A3035 RMK A01 T10291034  RH  096%=      5-min Rain = 0
KDO2 140948Z 09004KT M03/M03 A3035 RMK A01 T10291034  RH  096%=      5-min Rain = 0
KDO2 140949Z 08004KT M03/M04 A3035 RMK A01 T10301035  RH  096%=      5-min Rain = 0
KDO2 140950Z 08004KT M03/M04 A3035 RMK A01 T10301036  RH  096%=      5-min Rain = 0
KDO2 140951Z 07004KT M03/M04 A3035 RMK A01 T10301036  RH  096%=      5-min Rain = 0
KDO2 140952Z 07004KT M03/M04 A3035 RMK A01 T10301036  RH  096%=      5-min Rain = 0
KDO2 140953Z 08004KT M03/M04 A3035 RMK A01 T10311036  RH  096%=      5-min Rain = 0
KDO2 140954Z 08004KT M03/M04 A3036 RMK A01 T10311036  RH  096%=      5-min Rain = 0
KDO2 140955Z 08004KT M03/M04 A3036 RMK A01 T10311036  RH  096%=      5-min Rain = 0
KDO2 140956Z 08004KT M03/M04 A3036 RMK A01 T10301035  RH  096%=      5-min Rain = 0
KDO2 140957Z 09004KT M03/M03 A3036 RMK A01 T10291034  RH  096%=      5-min Rain = 0
KDO2 140958Z 09004KT M03/M03 A3036 RMK A01 T10291034  RH  096%=      5-min Rain = 0
KDO2 140959Z 09004KT M03/M04 A3036 RMK A01 T10301035  RH  096%=      5-min Rain = 0
KDO2 141000Z 09004KT M03/M04 A3036 RMK A01 T10301036  RH  096%=      5-min Rain = 0
KDO2 141001Z 09004KT M03/M04 A3036 RMK A01 T10311036  RH  096%=      5-min Rain = 0
KDO2 141002Z 09004KT M03/M04 A3036 RMK A01 T10311036  RH  096%=      5-min Rain = 0
KDO2 141003Z 09004KT M03/M04 A3036 RMK A01 T10311037  RH  096%=      5-min Rain = 0
KDO2 141004Z 10004KT M03/M04 A3036 RMK A01 T10311037  RH  096%=      5-min Rain = 0
KDO2 141005Z 09004KT M03/M04 A3036 RMK A01 T10321037  RH  096%=      5-min Rain = 0
KDO2 141006Z 09004KT M03/M04 A3036 RMK A01 T10321038  RH  096%=      5-min Rain = 0
KDO2 141007Z 08004KT M03/M04 A3036 RMK A01 T10321038  RH  096%=      5-min Rain = 0
KDO2 141008Z 08004KT M03/M04 A3036 RMK A01 T10321038  RH  096%=      5-min Rain = 0
KDO2 141009Z 08004KT M03/M04 A3036 RMK A01 T10331039  RH  096%=      5-min Rain = 0
KDO2 141010Z 08004KT M03/M04 A3036 RMK A01 T10331039  RH  096%=      5-min Rain = 0
KDO2 141011Z 08004KT M03/M04 A3036 RMK A01 T10321038  RH  096%=      5-min Rain = 0
KDO2 141012Z 09004KT M03/M04 A3036 RMK A01 T10321037  RH  096%=      5-min Rain = 0
KDO2 141013Z 09004KT M03/M04 A3036 RMK A01 T10311036  RH  096%=      5-min Rain = 0
KDO2 141014Z 09004KT M03/M04 A3036 RMK A01 T10311036  RH  096%=      5-min Rain = 0
KDO2 141015Z 10004KT M03/M04 A3036 RMK A01 T10311036  RH  096%=      5-min Rain = 0
KDO2 141016Z 10004KT M03/M04 A3036 RMK A01 T10311036  RH  096%=      5-min Rain = 0
KDO2 141017Z 10004KT M03/M04 A3036 RMK A01 T10311037  RH  096%=      5-min Rain = 0
KDO2 141018Z 10004KT M03/M04 A3036 RMK A01 T10321037  RH  096%=      5-min Rain = 0
KDO2 141019Z 10004KT M03/M04 A3036 RMK A01 T10331038  RH  096%=      5-min Rain = 0
KDO2 141020Z 10004KT M03/M04 A3036 RMK A01 T10331039  RH  096%=      5-min Rain = 0
KDO2 141021Z 11004KT M03/M04 A3036 RMK A01 T10341039  RH  096%=      5-min Rain = 0
KDO2 141022Z 11004KT M03/M04 A3036 RMK A01 T10341040  RH  096%=      5-min Rain = 0
KDO2 141023Z 12004KT M03/M04 A3036 RMK A01 T10341040  RH  096%=      5-min Rain = 0
KDO2 141024Z 12004KT M04/M04 A3036 RMK A01 T10351041  RH  096%=      5-min Rain = 0
KDO2 141025Z 11004KT M04/M04 A3036 RMK A01 T10351041  RH  096%=      5-min Rain = 0
KDO2 141026Z 11004KT M04/M04 A3036 RMK A01 T10361042  RH  096%=      5-min Rain = 0
KDO2 141027Z 11004KT M04/M04 A3036 RMK A01 T10361042  RH  096%=      5-min Rain = 0
KDO2 141028Z 10004KT M04/M04 A3037 RMK A01 T10361042  RH  096%=      5-min Rain = 0
KDO2 141029Z 10004KT M04/M04 A3036 RMK A01 T10361042  RH  096%=      5-min Rain = 0
KDO2 141030Z 10004KT M04/M04 A3036 RMK A01 T10361042  RH  096%=      5-min Rain = 0
KDO2 141031Z 11004KT M04/M04 A3036 RMK A01 T10351040  RH  096%=      5-min Rain = 0
KDO2 141032Z 11005KT M03/M04 A3036 RMK A01 T10341039  RH  096%=      5-min Rain = 0
KDO2 141033Z 11005KT M03/M04 A3036 RMK A01 T10331039  RH  096%=      5-min Rain = 0
KDO2 141034Z 12005KT M03/M04 A3036 RMK A01 T10331038  RH  096%=      5-min Rain = 0
KDO2 141035Z 12005KT M03/M04 A3036 RMK A01 T10331038  RH  096%=      5-min Rain = 0
KDO2 141036Z 12005KT M03/M04 A3036 RMK A01 T10331038  RH  096%=      5-min Rain = 0
KDO2 141037Z 12004KT M03/M04 A3036 RMK A01 T10331038  RH  096%=      5-min Rain = 0
KDO2 141038Z 13004KT M03/M04 A3037 RMK A01 T10321038  RH  096%=      5-min Rain = 0
KDO2 141039Z 13004KT M03/M04 A3037 RMK A01 T10321037  RH  096%=      5-min Rain = 0
KDO2 141040Z 13004KT M03/M04 A3036 RMK A01 T10321037  RH  096%=      5-min Rain = 0
KDO2 141041Z 13004KT M03/M04 A3036 RMK A01 T10331038  RH  096%=      5-min Rain = 0
KDO2 141042Z 13004KT M03/M04 A3036 RMK A01 T10331038  RH  096%=      5-min Rain = 0
KDO2 141043Z 13004KT M03/M04 A3036 RMK A01 T10321038  RH  096%=      5-min Rain = 0
KDO2 141044Z 13004KT M03/M04 A3036 RMK A01 T10331038  RH  096%=      5-min Rain = 0
KDO2 141045Z 13004KT M03/M04 A3036 RMK A01 T10331038  RH  096%=      5-min Rain = 0
KDO2 141046Z 12004KT M03/M04 A3036 RMK A01 T10331038  RH  096%=      5-min Rain = 0
KDO2 141047Z 12004KT M03/M04 A3036 RMK A01 T10331038  RH  096%=      5-min Rain = 0
KDO2 141048Z 11003KT M03/M04 A3036 RMK A01 T10331039  RH  096%=      5-min Rain = 0
KDO2 141049Z 10003KT M03/M04 A3036 RMK A01 T10331038  RH  096%=      5-min Rain = 0
KDO2 141050Z 10003KT M03/M04 A3036 RMK A01 T10341039  RH  096%=      5-min Rain = 0
KDO2 141051Z 10003KT M03/M04 A3036 RMK A01 T10341039  RH  096%=      5-min Rain = 0
KDO2 141052Z 10003KT M04/M04 A3036 RMK A01 T10351040  RH  096%=      5-min Rain = 0
KDO2 141053Z 11003KT M04/M04 A3036 RMK A01 T10361041  RH  096%=      5-min Rain = 0
KDO2 141054Z 11003KT M04/M04 A3036 RMK A01 T10361041  RH  096%=      5-min Rain = 0
KDO2 141055Z 11003KT M04/M04 A3036 RMK A01 T10361041  RH  096%=      5-min Rain = 0
KDO2 141056Z 11003KT M04/M04 A3036 RMK A01 T10351040  RH  096%=      5-min Rain = 0
KDO2 141057Z 10003KT M03/M04 A3036 RMK A01 T10341039  RH  097%=      5-min Rain = 0
KDO2 141058Z 10003KT M03/M04 A3036 RMK A01 T10331038  RH  097%=      5-min Rain = 0
KDO2 141059Z 10003KT M03/M04 A3036 RMK A01 T10331038  RH  097%=      5-min Rain = 0
KDO2 141100Z 10003KT M03/M04 A3036 RMK A01 T10331037  RH  097%=      5-min Rain = 0
KDO2 141101Z 10002KT M03/M04 A3036 RMK A01 T10331037  RH  097%=      5-min Rain = 0
KDO2 141102Z 11002KT M03/M04 A3036 RMK A01 T10331038  RH  097%=      5-min Rain = 0
KDO2 141103Z 11002KT M03/M04 A3036 RMK A01 T10331038  RH  096%=      5-min Rain = 0
KDO2 141104Z 11002KT M03/M04 A3036 RMK A01 T10341039  RH  096%=      5-min Rain = 0
KDO2 141105Z 12002KT M03/M04 A3036 RMK A01 T10341039  RH  096%=      5-min Rain = 0
KDO2 141106Z 12002KT M03/M04 A3036 RMK A01 T10341039  RH  096%=      5-min Rain = 0
KDO2 141107Z 13002KT M04/M04 A3036 RMK A01 T10351040  RH  096%=      5-min Rain = 0
KDO2 141108Z 13002KT M04/M04 A3036 RMK A01 T10351041  RH  096%=      5-min Rain = 0
KDO2 141109Z 13003KT M04/M04 A3036 RMK A01 T10361041  RH  096%=      5-min Rain = 0
KDO2 141110Z 13003KT M04/M04 A3036 RMK A01 T10361041  RH  096%=      5-min Rain = 0
KDO2 141111Z 12002KT M04/M04 A3036 RMK A01 T10361041  RH  096%=      5-min Rain = 0
KDO2 141112Z 11002KT M04/M04 A3037 RMK A01 T10361041  RH  096%=      5-min Rain = 0
KDO2 141113Z 08001KT M04/M04 A3037 RMK A01 T10361041  RH  096%=      5-min Rain = 0
KDO2 141114Z 06001KT M04/M04 A3037 RMK A01 T10361041  RH  096%=      5-min Rain = 0
KDO2 141115Z 04002KT M04/M04 A3037 RMK A01 T10371042  RH  096%=      5-min Rain = 0
KDO2 141116Z 03003KT M04/M04 A3037 RMK A01 T10381044  RH  096%=      5-min Rain = 0
KDO2 141117Z 02003KT M04/M05 A3037 RMK A01 T10401045  RH  096%=      5-min Rain = 0
KDO2 141118Z 02003KT M04/M05 A3037 RMK A01 T10411047  RH  096%=      5-min Rain = 0
KDO2 141119Z 03002KT M04/M05 A3037 RMK A01 T10411047  RH  096%=      5-min Rain = 0
KDO2 141120Z 04002KT M04/M05 A3037 RMK A01 T10411047  RH  096%=      5-min Rain = 0
KDO2 141121Z 05001KT M04/M05 A3037 RMK A01 T10411046  RH  096%=      5-min Rain = 0
KDO2 141122Z 06001KT M04/M05 A3037 RMK A01 T10411046  RH  096%=      5-min Rain = 0
KDO2 141123Z 07001KT M04/M05 A3037 RMK A01 T10411046  RH  096%=      5-min Rain = 0
KDO2 141124Z 07001KT M04/M05 A3037 RMK A01 T10411046  RH  096%=      5-min Rain = 0
KDO2 141125Z 06001KT M04/M05 A3037 RMK A01 T10411046  RH  096%=      5-min Rain = 0
KDO2 141126Z 05001KT M04/M05 A3037 RMK A01 T10401046  RH  096%=      5-min Rain = 0
KDO2 141127Z 03002KT M04/M05 A3037 RMK A01 T10401045  RH  096%=      5-min Rain = 0
KDO2 141128Z 03002KT M04/M05 A3037 RMK A01 T10401045  RH  096%=      5-min Rain = 0
KDO2 141129Z 04002KT M04/M05 A3037 RMK A01 T10401045  RH  096%=      5-min Rain = 0
KDO2 141130Z 04002KT M04/M04 A3037 RMK A01 T10391044  RH  096%=      5-min Rain = 0
KDO2 141131Z 05002KT M04/M04 A3037 RMK A01 T10391044  RH  096%=      5-min Rain = 0
KDO2 141132Z 06002KT M04/M04 A3037 RMK A01 T10391044  RH  096%=      5-min Rain = 0
KDO2 141133Z 06002KT M04/M04 A3037 RMK A01 T10391044  RH  096%=      5-min Rain = 0
KDO2 141134Z 07002KT M04/M04 A3037 RMK A01 T10391044  RH  096%=      5-min Rain = 0
KDO2 141135Z 07002KT M04/M04 A3037 RMK A01 T10391043  RH  097%=      5-min Rain = 0
KDO2 141136Z 06002KT M04/M04 A3037 RMK A01 T10381042  RH  097%=      5-min Rain = 0
KDO2 141137Z 05002KT M04/M04 A3037 RMK A01 T10381042  RH  097%=      5-min Rain = 0
KDO2 141138Z 03003KT M04/M04 A3037 RMK A01 T10371042  RH  097%=      5-min Rain = 0
KDO2 141139Z 03003KT M04/M04 A3037 RMK A01 T10381043  RH  097%=      5-min Rain = 0
KDO2 141140Z 03003KT M04/M04 A3037 RMK A01 T10391044  RH  096%=      5-min Rain = 0
KDO2 141141Z 04002KT M04/M04 A3037 RMK A01 T10391044  RH  096%=      5-min Rain = 0
KDO2 141142Z 04003KT M04/M05 A3037 RMK A01 T10401045  RH  096%=      5-min Rain = 0
KDO2 141143Z 04003KT M04/M05 A3037 RMK A01 T10401045  RH  096%=      5-min Rain = 0
KDO2 141144Z 04003KT M04/M05 A3037 RMK A01 T10411046  RH  096%=      5-min Rain = 0
KDO2 141145Z 04003KT M04/M05 A3037 RMK A01 T10401045  RH  097%=      5-min Rain = 0
KDO2 141146Z 03003KT M04/M04 A3037 RMK A01 T10401044  RH  097%=      5-min Rain = 0
KDO2 141147Z 04003KT M04/M04 A3037 RMK A01 T10391044  RH  097%=      5-min Rain = 0
KDO2 141148Z 04003KT M04/M04 A3037 RMK A01 T10391044  RH  097%=      5-min Rain = 0
KDO2 141149Z 04002KT M04/M04 A3037 RMK A01 T10381043  RH  097%=      5-min Rain = 0
KDO2 141150Z 04002KT M04/M04 A3037 RMK A01 T10381042  RH  097%=      5-min Rain = 0
KDO2 141151Z 04002KT M04/M04 A3037 RMK A01 T10371041  RH  097%=      5-min Rain = 0
KDO2 141152Z 05003KT M04/M04 A3037 RMK A01 T10361040  RH  097%=      5-min Rain = 0
KDO2 141153Z 05003KT M04/M04 A3037 RMK A01 T10361040  RH  097%=      5-min Rain = 0
KDO2 141154Z 06003KT M04/M04 A3037 RMK A01 T10351039  RH  097%=      5-min Rain = 0
KDO2 141155Z 06002KT M04/M04 A3037 RMK A01 T10351039  RH  097%=      5-min Rain = 0
KDO2 141156Z 06003KT M03/M04 A3037 RMK A01 T10341038  RH  097%=      5-min Rain = 0
KDO2 141157Z 05002KT M03/M04 A3037 RMK A01 T10341038  RH  097%=      5-min Rain = 0
KDO2 141158Z 05002KT M03/M04 A3037 RMK A01 T10331038  RH  097%=      5-min Rain = 0
KDO2 141159Z 04003KT M03/M04 A3037 RMK A01 T10341038  RH  097%=      5-min Rain = 0
KDO2 141200Z 03003KT M04/M04 A3037 RMK A01 T10351039  RH  097%=      5-min Rain = 0
KDO2 141201Z 03003KT M04/M04 A3037 RMK A01 T10361040  RH  097%=      5-min Rain = 0
KDO2 141202Z 04003KT M04/M04 A3037 RMK A01 T10371041  RH  097%=      5-min Rain = 0
KDO2 141203Z 05003KT M04/M04 A3037 RMK A01 T10381042  RH  097%=      5-min Rain = 0
KDO2 141204Z 06003KT M04/M04 A3037 RMK A01 T10381043  RH  097%=      5-min Rain = 0
KDO2 141205Z 07003KT M04/M04 A3037 RMK A01 T10381043  RH  097%=      5-min Rain = 0
KDO2 141206Z 08002KT M04/M04 A3037 RMK A01 T10381043  RH  097%=      5-min Rain = 0
KDO2 141207Z 08003KT M04/M04 A3037 RMK A01 T10381043  RH  097%=      5-min Rain = 0
KDO2 141208Z 07003KT M04/M04 A3037 RMK A01 T10381043  RH  097%=      5-min Rain = 0
KDO2 141209Z 06003KT M04/M04 A3037 RMK A01 T10381043  RH  097%=      5-min Rain = 0
KDO2 141210Z 05003KT M04/M04 A3037 RMK A01 T10381043  RH  097%=      5-min Rain = 0
KDO2 141211Z 05003KT M04/M04 A3037 RMK A01 T10391043  RH  097%=      5-min Rain = 0
KDO2 141212Z 04003KT M04/M04 A3037 RMK A01 T10391044  RH  097%=      5-min Rain = 0
KDO2 141213Z 05003KT M04/M04 A3037 RMK A01 T10391044  RH  097%=      5-min Rain = 0
KDO2 141214Z 05003KT M04/M04 A3037 RMK A01 T10391044  RH  097%=      5-min Rain = 0
KDO2 141215Z 05003KT M04/M04 A3037 RMK A01 T10391044  RH  097%=      5-min Rain = 0
KDO2 141216Z 05003KT M04/M04 A3037 RMK A01 T10391044  RH  097%=      5-min Rain = 0
KDO2 141217Z 06003KT M04/M04 A3037 RMK A01 T10391044  RH  097%=      5-min Rain = 0
KDO2 141218Z 06003KT M04/M04 A3037 RMK A01 T10391044  RH  097%=      5-min Rain = 0
KDO2 141219Z 07003KT M04/M04 A3037 RMK A01 T10391044  RH  097%=      5-min Rain = 0
KDO2 141220Z 07003KT M04/M04 A3037 RMK A01 T10391043  RH  097%=      5-min Rain = 0
KDO2 141221Z 07003KT M04/M04 A3038 RMK A01 T10391044  RH  097%=      5-min Rain = 0
KDO2 141222Z 07004KT M04/M04 A3038 RMK A01 T10391044  RH  097%=      5-min Rain = 0
KDO2 141223Z 06004KT M04/M04 A3038 RMK A01 T10401044  RH  097%=      5-min Rain = 0
KDO2 141224Z 06004KT M04/M04 A3038 RMK A01 T10401044  RH  097%=      5-min Rain = 0
KDO2 141225Z 06004KT M04/M05 A3038 RMK A01 T10401045  RH  096%=      5-min Rain = 0
KDO2 141226Z 06004KT M04/M05 A3038 RMK A01 T10411046  RH  096%=      5-min Rain = 0
KDO2 141227Z 06005KT M04/M05 A3038 RMK A01 T10411046  RH  096%=      5-min Rain = 0
KDO2 141228Z 06005KT M04/M05 A3038 RMK A01 T10421047  RH  096%=      5-min Rain = 0
KDO2 141229Z 06005KT M04/M05 A3038 RMK A01 T10421047  RH  096%=      5-min Rain = 0
KDO2 141230Z 06005KT M04/M05 A3038 RMK A01 T10411046  RH  096%=      5-min Rain = 0
KDO2 141231Z 06005KT M04/M05 A3038 RMK A01 T10421046  RH  096%=      5-min Rain = 0
KDO2 141232Z 06004KT M04/M05 A3038 RMK A01 T10411046  RH  096%=      5-min Rain = 0
KDO2 141233Z 05004KT M04/M05 A3038 RMK A01 T10401045  RH  096%=      5-min Rain = 0
KDO2 141234Z 04004KT M04/M05 A3038 RMK A01 T10411046  RH  096%=      5-min Rain = 0
KDO2 141235Z 04005KT M04/M05 A3038 RMK A01 T10401045  RH  096%=      5-min Rain = 0
KDO2 141236Z 05005KT M04/M05 A3038 RMK A01 T10401045  RH  096%=      5-min Rain = 0
KDO2 141237Z 05005KT M04/M05 A3038 RMK A01 T10401045  RH  096%=      5-min Rain = 0
KDO2 141238Z 05005KT M04/M05 A3038 RMK A01 T10401045  RH  096%=      5-min Rain = 0
KDO2 141239Z 05005KT M04/M05 A3038 RMK A01 T10401045  RH  096%=      5-min Rain = 0
KDO2 141240Z 06005KT M04/M05 A3038 RMK A01 T10401045  RH  096%=      5-min Rain = 0
KDO2 141241Z 06005KT M04/M05 A3038 RMK A01 T10401045  RH  096%=      5-min Rain = 0
KDO2 141242Z 06005KT M04/M04 A3038 RMK A01 T10391044  RH  096%=      5-min Rain = 0
KDO2 141243Z 06005KT M04/M04 A3038 RMK A01 T10391044  RH  096%=      5-min Rain = 0
KDO2 141244Z 06004KT M04/M04 A3038 RMK A01 T10391044  RH  096%=      5-min Rain = 0
KDO2 141245Z 06004KT M04/M04 A3038 RMK A01 T10381043  RH  096%=      5-min Rain = 0
KDO2 141246Z 06004KT M04/M04 A3038 RMK A01 T10381043  RH  096%=      5-min Rain = 0
KDO2 141247Z 05004KT M04/M04 A3038 RMK A01 T10381043  RH  096%=      5-min Rain = 0
KDO2 141248Z 06004KT M04/M04 A3038 RMK A01 T10381043  RH  096%=      5-min Rain = 0
KDO2 141249Z 06004KT M04/M04 A3038 RMK A01 T10381043  RH  096%=      5-min Rain = 0
KDO2 141250Z 07004KT M04/M04 A3038 RMK A01 T10381043  RH  096%=      5-min Rain = 0
KDO2 141251Z 07004KT M04/M04 A3038 RMK A01 T10381043  RH  096%=      5-min Rain = 0
KDO2 141252Z 07003KT M04/M04 A3038 RMK A01 T10381043  RH  096%=      5-min Rain = 0
KDO2 141253Z 07003KT M04/M04 A3038 RMK A01 T10381043  RH  096%=      5-min Rain = 0
KDO2 141254Z 06003KT M04/M04 A3038 RMK A01 T10381043  RH  096%=      5-min Rain = 0
KDO2 141255Z 05004KT M04/M04 A3038 RMK A01 T10381044  RH  096%=      5-min Rain = 0
KDO2 141256Z 05004KT M04/M04 A3038 RMK A01 T10391044  RH  096%=      5-min Rain = 0
KDO2 141257Z 05003KT M04/M05 A3038 RMK A01 T10391045  RH  096%=      5-min Rain = 0
KDO2 141258Z 05004KT M04/M05 A3038 RMK A01 T10401046  RH  096%=      5-min Rain = 0
KDO2 141259Z 05003KT M04/M05 A3038 RMK A01 T10411047  RH  096%=      5-min Rain = 0
KDO2 141300Z 04003KT M04/M05 A3039 RMK A01 T10411047  RH  095%=      5-min Rain = 0
KDO2 141301Z 05003KT M04/M05 A3039 RMK A01 T10421048  RH  095%=      5-min Rain = 0
KDO2 141302Z 05003KT M04/M05 A3039 RMK A01 T10421048  RH  095%=      5-min Rain = 0
KDO2 141303Z 05002KT M04/M05 A3039 RMK A01 T10411048  RH  095%=      5-min Rain = 0
KDO2 141304Z 05002KT M04/M05 A3039 RMK A01 T10421048  RH  095%=      5-min Rain = 0
KDO2 141305Z 06003KT M04/M05 A3039 RMK A01 T10421048  RH  096%=      5-min Rain = 0
KDO2 141306Z 05003KT M04/M05 A3039 RMK A01 T10411047  RH  096%=      5-min Rain = 0
KDO2 141307Z 05003KT M04/M05 A3039 RMK A01 T10411047  RH  096%=      5-min Rain = 0
KDO2 141308Z 05003KT M04/M05 A3039 RMK A01 T10411047  RH  096%=      5-min Rain = 0
KDO2 141309Z 05003KT M04/M05 A3039 RMK A01 T10411047  RH  096%=      5-min Rain = 0
KDO2 141310Z 05003KT M04/M05 A3039 RMK A01 T10411047  RH  096%=      5-min Rain = 0
KDO2 141311Z 06003KT M04/M05 A3039 RMK A01 T10411047  RH  095%=      5-min Rain = 0
KDO2 141312Z 06003KT M04/M05 A3039 RMK A01 T10411048  RH  095%=      5-min Rain = 0
KDO2 141313Z 06003KT M04/M05 A3039 RMK A01 T10421048  RH  095%=      5-min Rain = 0
KDO2 141314Z 07003KT M04/M05 A3039 RMK A01 T10411048  RH  095%=      5-min Rain = 0
KDO2 141315Z 07003KT M04/M05 A3039 RMK A01 T10421048  RH  095%=      5-min Rain = 0
KDO2 141316Z 08003KT M04/M05 A3039 RMK A01 T10421048  RH  095%=      5-min Rain = 0
KDO2 141317Z 08003KT M04/M05 A3039 RMK A01 T10411048  RH  095%=      5-min Rain = 0
KDO2 141318Z 08003KT M04/M05 A3039 RMK A01 T10421048  RH  095%=      5-min Rain = 0
KDO2 141319Z 08004KT M04/M05 A3039 RMK A01 T10411048  RH  095%=      5-min Rain = 0
KDO2 141320Z 08004KT M04/M05 A3039 RMK A01 T10411048  RH  095%=      5-min Rain = 0
KDO2 141321Z 07004KT M04/M05 A3039 RMK A01 T10411048  RH  095%=      5-min Rain = 0
KDO2 141322Z 07004KT M04/M05 A3039 RMK A01 T10411048  RH  095%=      5-min Rain = 0
KDO2 141323Z 07005KT M04/M05 A3039 RMK A01 T10411047  RH  095%=      5-min Rain = 0
KDO2 141324Z 07005KT M04/M05 A3039 RMK A01 T10401047  RH  095%=      5-min Rain = 0
KDO2 141325Z 07005KT M04/M05 A304 RMK A01 T10401047  RH  095%=      5-min Rain = 0
KDO2 141326Z 07005KT M04/M05 A304 RMK A01 T10401046  RH  095%=      5-min Rain = 0
KDO2 141327Z 07005KT M04/M05 A304 RMK A01 T10391045  RH  095%=      5-min Rain = 0
KDO2 141328Z 07005KT M04/M05 A304 RMK A01 T10391045  RH  095%=      5-min Rain = 0
KDO2 141329Z 07005KT M04/M04 A304 RMK A01 T10381044  RH  095%=      5-min Rain = 0
KDO2 141330Z 07005KT M04/M04 A304 RMK A01 T10381044  RH  095%=      5-min Rain = 0
KDO2 141331Z 07005KT M04/M04 A304 RMK A01 T10371043  RH  096%=      5-min Rain = 0
KDO2 141332Z 08005KT M04/M04 A304 RMK A01 T10361042  RH  096%=      5-min Rain = 0
KDO2 141333Z 08005KT M04/M04 A304 RMK A01 T10351041  RH  096%=      5-min Rain = 0
KDO2 141334Z 08005KT M03/M04 A304 RMK A01 T10341040  RH  096%=      5-min Rain = 0
KDO2 141335Z 07005KT M03/M04 A304 RMK A01 T10341040  RH  096%=      5-min Rain = 0
KDO2 141336Z 07005KT M03/M04 A304 RMK A01 T10331039  RH  096%=      5-min Rain = 0
KDO2 141337Z 06005KT M03/M04 A304 RMK A01 T10331039  RH  096%=      5-min Rain = 0
KDO2 141338Z 06004KT M03/M04 A304 RMK A01 T10331039  RH  095%=      5-min Rain = 0
KDO2 141339Z 06005KT M03/M04 A304 RMK A01 T10321039  RH  095%=      5-min Rain = 0
KDO2 141340Z 06005KT M03/M04 A304 RMK A01 T10321039  RH  095%=      5-min Rain = 0
KDO2 141341Z 06005KT M03/M04 A304 RMK A01 T10321039  RH  095%=      5-min Rain = 0
KDO2 141342Z 07004KT M03/M04 A304 RMK A01 T10311038  RH  095%=      5-min Rain = 0
KDO2 141343Z 07004KT M03/M04 A304 RMK A01 T10311038  RH  095%=      5-min Rain = 0
KDO2 141344Z 08004KT M03/M04 A304 RMK A01 T10311037  RH  095%=      5-min Rain = 0
KDO2 141345Z 08004KT M03/M04 A304 RMK A01 T10301037  RH  095%=      5-min Rain = 0
KDO2 141346Z 07004KT M03/M04 A304 RMK A01 T10301037  RH  095%=      5-min Rain = 0
KDO2 141347Z 07005KT M03/M04 A304 RMK A01 T10301037  RH  095%=      5-min Rain = 0
KDO2 141348Z 07005KT M03/M04 A304 RMK A01 T10301037  RH  095%=      5-min Rain = 0
KDO2 141349Z 06005KT M03/M04 A304 RMK A01 T10291036  RH  095%=      5-min Rain = 0
KDO2 141350Z 06005KT M03/M04 A304 RMK A01 T10291036  RH  095%=      5-min Rain = 0
KDO2 141351Z 06005KT M03/M04 A304 RMK A01 T10281035  RH  095%=      5-min Rain = 0
KDO2 141352Z 07005KT M03/M04 A304 RMK A01 T10281035  RH  095%=      5-min Rain = 0
KDO2 141353Z 07005KT M03/M03 A304 RMK A01 T10271034  RH  095%=      5-min Rain = 0
KDO2 141354Z 07004KT M03/M03 A304 RMK A01 T10261034  RH  095%=      5-min Rain = 0
KDO2 141355Z 07005KT M03/M03 A304 RMK A01 T10271034  RH  095%=      5-min Rain = 0
KDO2 141356Z 07005KT M03/M03 A304 RMK A01 T10261033  RH  095%=      5-min Rain = 0
KDO2 141357Z 07005KT M03/M03 A304 RMK A01 T10261033  RH  095%=      5-min Rain = 0
KDO2 141358Z 07004KT M03/M03 A304 RMK A01 T10261033  RH  095%=      5-min Rain = 0
KDO2 141359Z 07005KT M03/M03 A304 RMK A01 T10251033  RH  095%=      5-min Rain = 0
KDO2 141400Z 07005KT M03/M03 A304 RMK A01 T10251033  RH  095%=      5-min Rain = 0
KDO2 141401Z 06005KT M03/M03 A304 RMK A01 T10251032  RH  095%=      5-min Rain = 0
KDO2 141402Z 06005KT M02/M03 A304 RMK A01 T10241031  RH  095%=      5-min Rain = 0
KDO2 141403Z 06005KT M02/M03 A304 RMK A01 T10231030  RH  095%=      5-min Rain = 0
KDO2 141404Z 06004KT M02/M03 A304 RMK A01 T10231030  RH  095%=      5-min Rain = 0
KDO2 141405Z 06006KT M02/M03 A304 RMK A01 T10221029  RH  095%=      5-min Rain = 0
KDO2 141406Z 06005KT M02/M03 A304 RMK A01 T10221030  RH  095%=      5-min Rain = 0
KDO2 141407Z 06005KT M02/M03 A3041 RMK A01 T10221029  RH  095%=      5-min Rain = 0
KDO2 141408Z 06006KT M02/M03 A3041 RMK A01 T10221029  RH  095%=      5-min Rain = 0
KDO2 141409Z 06006KT M02/M03 A3041 RMK A01 T10221029  RH  095%=      5-min Rain = 0
KDO2 141410Z 06006KT M02/M03 A3041 RMK A01 T10211029  RH  095%=      5-min Rain = 0
KDO2 141411Z 06005KT M02/M03 A3041 RMK A01 T10211029  RH  095%=      5-min Rain = 0
KDO2 141412Z 07006KT M02/M03 A3041 RMK A01 T10211028  RH  095%=      5-min Rain = 0
KDO2 141413Z 07006KT M02/M03 A3041 RMK A01 T10201028  RH  095%=      5-min Rain = 0
KDO2 141414Z 07006KT M02/M03 A3041 RMK A01 T10201027  RH  095%=      5-min Rain = 0
KDO2 141415Z 07006KT M02/M03 A3041 RMK A01 T10191027  RH  094%=      5-min Rain = 0
KDO2 141416Z 08006KT M02/M03 A3041 RMK A01 T10191027  RH  094%=      5-min Rain = 0
KDO2 141417Z 08005KT M02/M03 A3041 RMK A01 T10191027  RH  094%=      5-min Rain = 0
KDO2 141418Z 08005KT M02/M03 A3041 RMK A01 T10181026  RH  094%=      5-min Rain = 0
KDO2 141419Z 08005KT M02/M03 A3041 RMK A01 T10171025  RH  094%=      5-min Rain = 0
KDO2 141420Z 07005KT M02/M03 A3041 RMK A01 T10171026  RH  094%=      5-min Rain = 0
KDO2 141421Z 07005KT M02/M03 A3041 RMK A01 T10171026  RH  094%=      5-min Rain = 0
KDO2 141422Z 07005KT M02/M03 A3041 RMK A01 T10171026  RH  094%=      5-min Rain = 0
KDO2 141423Z 07005KT M02/M03 A3041 RMK A01 T10171026  RH  094%=      5-min Rain = 0
KDO2 141424Z 07005KT M02/M03 A3041 RMK A01 T10171026  RH  094%=      5-min Rain = 0
KDO2 141425Z 08006KT M02/M03 A3041 RMK A01 T10171026  RH  094%=      5-min Rain = 0
KDO2 141426Z 08006KT M02/M03 A3041 RMK A01 T10161026  RH  093%=      5-min Rain = 0
KDO2 141427Z 08005KT M02/M03 A3041 RMK A01 T10161026  RH  093%=      5-min Rain = 0
KDO2 141428Z 08006KT M02/M03 A3041 RMK A01 T10161025  RH  093%=      5-min Rain = 0
KDO2 141429Z 08006KT M02/M03 A3041 RMK A01 T10161025  RH  094%=      5-min Rain = 0
KDO2 141430Z 08005KT M02/M03 A3041 RMK A01 T10161025  RH  094%=      5-min Rain = 0
KDO2 141431Z 08005KT M02/M03 A3041 RMK A01 T10161025  RH  094%=      5-min Rain = 0
KDO2 141432Z 08006KT M02/M03 A3041 RMK A01 T10161025  RH  094%=      5-min Rain = 0
KDO2 141433Z 09006KT M02/M02 A3041 RMK A01 T10151024  RH  094%=      5-min Rain = 0
KDO2 141434Z 09006KT M02/M02 A3041 RMK A01 T10161024  RH  094%=      5-min Rain = 0
KDO2 141435Z 09006KT M02/M02 A3041 RMK A01 T10151024  RH  094%=      5-min Rain = 0
KDO2 141436Z 09006KT M02/M02 A3041 RMK A01 T10151023  RH  094%=      5-min Rain = 0
KDO2 141437Z 09006KT M02/M02 A3041 RMK A01 T10151023  RH  094%=      5-min Rain = 0
KDO2 141438Z 10007KT M01/M02 A3041 RMK A01 T10141023  RH  094%=      5-min Rain = 0
KDO2 141439Z 10007KT M01/M02 A3041 RMK A01 T10141023  RH  094%=      5-min Rain = 0
KDO2 141440Z 10006KT M01/M02 A3041 RMK A01 T10141023  RH  094%=      5-min Rain = 0
KDO2 141441Z 10007KT M01/M02 A3041 RMK A01 T10141023  RH  094%=      5-min Rain = 0
KDO2 141442Z 11007KT M01/M02 A3041 RMK A01 T10141023  RH  093%=      5-min Rain = 0
KDO2 141443Z 10006KT M01/M02 A3041 RMK A01 T10141024  RH  093%=      5-min Rain = 0
KDO2 141444Z 11006KT M01/M02 A3041 RMK A01 T10141024  RH  093%=      5-min Rain = 0
KDO2 141445Z 11006KT M01/M02 A3041 RMK A01 T10131023  RH  093%=      5-min Rain = 0
KDO2 141446Z 11007KT M01/M02 A3041 RMK A01 T10131023  RH  093%=      5-min Rain = 0
KDO2 141447Z 11006KT M01/M02 A3041 RMK A01 T10131023  RH  093%=      5-min Rain = 0
KDO2 141448Z 11007KT M01/M02 A3041 RMK A01 T10131023  RH  093%=      5-min Rain = 0
KDO2 141449Z 11006KT M01/M02 A3041 RMK A01 T10131023  RH  093%=      5-min Rain = 0
KDO2 141450Z 11007KT M01/M02 A3041 RMK A01 T10131023  RH  093%=      5-min Rain = 0
KDO2 141451Z 11006KT M01/M02 A3041 RMK A01 T10131023  RH  093%=      5-min Rain = 0
KDO2 141452Z 11006KT M01/M02 A3041 RMK A01 T10131023  RH  093%=      5-min Rain = 0
KDO2 141453Z 11006KT M01/M02 A3041 RMK A01 T10131023  RH  093%=      5-min Rain = 0
KDO2 141454Z 10006KT M01/M02 A3041 RMK A01 T10131023  RH  093%=      5-min Rain = 0
KDO2 141455Z 10005KT M01/M02 A3041 RMK A01 T10121022  RH  093%=      5-min Rain = 0
KDO2 141456Z 11006KT M01/M02 A3041 RMK A01 T10121022  RH  093%=      5-min Rain = 0
KDO2 141457Z 10006KT M01/M02 A3041 RMK A01 T10121022  RH  093%=      5-min Rain = 0
KDO2 141458Z 10005KT M01/M02 A3041 RMK A01 T10121022  RH  093%=      5-min Rain = 0
KDO2 141459Z 10006KT M01/M02 A3041 RMK A01 T10111021  RH  093%=      5-min Rain = 0
KDO2 141500Z 11004KT M01/M02 A3041 RMK A01 T10111021  RH  093%=      5-min Rain = 0
KDO2 141501Z 12004KT M01/M02 A3041 RMK A01 T10101019  RH  093%=      5-min Rain = 0
KDO2 141502Z 11006KT M01/M02 A3041 RMK A01 T10091019  RH  093%=      5-min Rain = 0
KDO2 141503Z 12006KT M01/M02 A3041 RMK A01 T10091019  RH  093%=      5-min Rain = 0
KDO2 141504Z 12008KT M01/M02 A3041 RMK A01 T10081018  RH  093%=      5-min Rain = 0
KDO2 141505Z 12006KT M01/M02 A3041 RMK A01 T10081018  RH  093%=      5-min Rain = 0
KDO2 141506Z 12008KT M01/M02 A3041 RMK A01 T10071018  RH  093%=      5-min Rain = 0
KDO2 141507Z 11008KT M01/M02 A3041 RMK A01 T10071018  RH  092%=      5-min Rain = 0
KDO2 141508Z 11006KT M01/M02 A3041 RMK A01 T10071018  RH  092%=      5-min Rain = 0
KDO2 141509Z 11008KT M01/M02 A3041 RMK A01 T10061017  RH  092%=      5-min Rain = 0
KDO2 141510Z 12010KT M01/M02 A3041 RMK A01 T10061017  RH  092%=      5-min Rain = 0
KDO2 141511Z 12007KT M01/M02 A3041 RMK A01 T10061018  RH  092%=      5-min Rain = 0
KDO2 141512Z 11008KT M01/M02 A3041 RMK A01 T10051017  RH  092%=      5-min Rain = 0
KDO2 141513Z 13007KT M00/M02 A3041 RMK A01 T10041016  RH  092%=      5-min Rain = 0
KDO2 141514Z 13008KT M00/M01 A3041 RMK A01 T10021013  RH  092%=      5-min Rain = 0
KDO2 141515Z 12008KT M00/M01 A3041 RMK A01 T10021013  RH  092%=      5-min Rain = 0
KDO2 141516Z 12008KT M00/M01 A3041 RMK A01 T10021014  RH  092%=      5-min Rain = 0
KDO2 141517Z 12008KT M00/M01 A3041 RMK A01 T10021014  RH  092%=      5-min Rain = 0
KDO2 141518Z 13008KT M00/M01 A3041 RMK A01 T10021014  RH  091%=      5-min Rain = 0
KDO2 141519Z 13007KT M00/M01 A3041 RMK A01 T10021014  RH  092%=      5-min Rain = 0
KDO2 141520Z 12008KT M00/M01 A3041 RMK A01 T10021013  RH  092%=      5-min Rain = 0
KDO2 141521Z 12009KT M00/M01 A3041 RMK A01 T10021014  RH  092%=      5-min Rain = 0
KDO2 141522Z 12008KT M00/M01 A3041 RMK A01 T10021014  RH  092%=      5-min Rain = 0
KDO2 141523Z 13007KT M00/M01 A3041 RMK A01 T10011012  RH  092%=      5-min Rain = 0
KDO2 141524Z 12006KT 00/01 A3041 RMK A01 T00000-11  RH  092%=      5-min Rain = 0
KDO2 141525Z 12007KT 00/M01 A3041 RMK A01 T00011010  RH  093%=      5-min Rain = 0
KDO2 141526Z 12009KT 00/M01 A3041 RMK A01 T00021009  RH  092%=      5-min Rain = 0
KDO2 141527Z 13008KT 00/M01 A3041 RMK A01 T00011011  RH  091%=      5-min Rain = 0
KDO2 141528Z 12008KT 00/M01 A3041 RMK A01 T00011012  RH  091%=      5-min Rain = 0
KDO2 141529Z 12007KT 00/M01 A3041 RMK A01 T00011011  RH  092%=      5-min Rain = 0
KDO2 141530Z 11007KT 00/M01 A3041 RMK A01 T00021009  RH  092%=      5-min Rain = 0
KDO2 141531Z 11008KT 00/M01 A3041 RMK A01 T00031009  RH  092%=      5-min Rain = 0
KDO2 141532Z 12007KT 00/M01 A3041 RMK A01 T00031009  RH  092%=      5-min Rain = 0
KDO2 141533Z 11008KT 00/M01 A3041 RMK A01 T00031009  RH  092%=      5-min Rain = 0
KDO2 141534Z 12008KT 00/M01 A3041 RMK A01 T00041008  RH  092%=      5-min Rain = 0
KDO2 141535Z 11007KT 00/M01 A3041 RMK A01 T00041008  RH  092%=      5-min Rain = 0
KDO2 141536Z 11008KT 00/M01 A3041 RMK A01 T00041008  RH  091%=      5-min Rain = 0
KDO2 141537Z 12008KT 00/M01 A3041 RMK A01 T00041009  RH  091%=      5-min Rain = 0
KDO2 141538Z 12007KT 01/M01 A3041 RMK A01 T00051008  RH  091%=      5-min Rain = 0
KDO2 141539Z 12007KT 01/M01 A3041 RMK A01 T00051008  RH  091%=      5-min Rain = 0
KDO2 141540Z 12006KT 01/M01 A3041 RMK A01 T00051009  RH  090%=      5-min Rain = 0
KDO2 141541Z 11006KT 00/M01 A3041 RMK A01 T00041012  RH  089%=      5-min Rain = 0
KDO2 141542Z 10006KT 00/M01 A3041 RMK A01 T00041011  RH  090%=      5-min Rain = 0
KDO2 141543Z 10006KT 01/M01 A3041 RMK A01 T00061007  RH  091%=      5-min Rain = 0
KDO2 141544Z 10005KT 01/M01 A3041 RMK A01 T00061007  RH  091%=      5-min Rain = 0
KDO2 141545Z 10007KT 01/M01 A3041 RMK A01 T00061008  RH  091%=      5-min Rain = 0
KDO2 141546Z 10008KT 01/M01 A3041 RMK A01 T00071007  RH  091%=      5-min Rain = 0
KDO2 141547Z 10008KT 01/M01 A3041 RMK A01 T00071008  RH  090%=      5-min Rain = 0
KDO2 141548Z 11008KT 01/M01 A3041 RMK A01 T00071008  RH  090%=      5-min Rain = 0
KDO2 141549Z 11008KT 01/M01 A3041 RMK A01 T00071009  RH  089%=      5-min Rain = 0
KDO2 141550Z 10008KT 01/M01 A3041 RMK A01 T00071008  RH  089%=      5-min Rain = 0
KDO2 141551Z 11006KT 01/M01 A3041 RMK A01 T00081007  RH  090%=      5-min Rain = 0
KDO2 141552Z 11007KT 01/M01 A3041 RMK A01 T00091006  RH  090%=      5-min Rain = 0
KDO2 141553Z 11007KT 01/M01 A3041 RMK A01 T00091005  RH  090%=      5-min Rain = 0
KDO2 141554Z 11005KT 01/M01 A3041 RMK A01 T00101006  RH  089%=      5-min Rain = 0
KDO2 141555Z 09007KT 01/M01 A3041 RMK A01 T00091007  RH  089%=      5-min Rain = 0
KDO2 141556Z 09008KT 01/M01 A3041 RMK A01 T00101005  RH  090%=      5-min Rain = 0
KDO2 141557Z 09007KT 01/M01 A3041 RMK A01 T00101006  RH  089%=      5-min Rain = 0
KDO2 141558Z 09007KT 01/M01 A3041 RMK A01 T00101007  RH  089%=      5-min Rain = 0
KDO2 141559Z 10007KT 01/M01 A3041 RMK A01 T00101006  RH  089%=      5-min Rain = 0
KDO2 141600Z 09006KT 01/M00 A3041 RMK A01 T00111004  RH  090%=      5-min Rain = 0
KDO2 141601Z 09006KT 01/M00 A3041 RMK A01 T00121003  RH  090%=      5-min Rain = 0
KDO2 141602Z 09007KT 01/M00 A3041 RMK A01 T00131002  RH  090%=      5-min Rain = 0
KDO2 141603Z 09007KT 01/M00 A3041 RMK A01 T00131004  RH  088%=      5-min Rain = 0
KDO2 141604Z 09007KT 01/M00 A3041 RMK A01 T00141003  RH  089%=      5-min Rain = 0
KDO2 141605Z 10008KT 02/M00 A3041 RMK A01 T00161001  RH  089%=      5-min Rain = 0
KDO2 141606Z 11006KT 02/M00 A3041 RMK A01 T00171002  RH  088%=      5-min Rain = 0
KDO2 141607Z 12005KT 02/M01 A3041 RMK A01 T00151005  RH  086%=      5-min Rain = 0
KDO2 141608Z 14006KT 02/M00 A3041 RMK A01 T00161003  RH  087%=      5-min Rain = 0
KDO2 141609Z 14004KT 02/M00 A3041 RMK A01 T00171004  RH  086%=      5-min Rain = 0
KDO2 141610Z 12004KT 02/M00 A3041 RMK A01 T00191003  RH  086%=      5-min Rain = 0
KDO2 141611Z 12007KT 02/M00 A3041 RMK A01 T00211001  RH  086%=      5-min Rain = 0
KDO2 141612Z 11006KT 02/M00 A3041 RMK A01 T00201004  RH  084%=      5-min Rain = 0
KDO2 141613Z 11004KT 02/M01 A3041 RMK A01 T00191006  RH  084%=      5-min Rain = 0
KDO2 141614Z 12005KT 02/M00 A3041 RMK A01 T00181004  RH  085%=      5-min Rain = 0
KDO2 141615Z 12006KT 02/M00 A3041 RMK A01 T00181004  RH  085%=      5-min Rain = 0
KDO2 141616Z 12005KT 02/M00 A3041 RMK A01 T00201003  RH  085%=      5-min Rain = 0
KDO2 141617Z 12007KT 02/00 A3041 RMK A01 T00230000  RH  085%=      5-min Rain = 0
KDO2 141618Z 13008KT 03/00 A3041 RMK A01 T00270003  RH  084%=      5-min Rain = 0
KDO2 141619Z 14008KT 03/M00 A3041 RMK A01 T00281002  RH  081%=      5-min Rain = 0
KDO2 141620Z 14009KT 03/M00 A3041 RMK A01 T00281001  RH  081%=      5-min Rain = 0
KDO2 141621Z 13008KT 03/M00 A3041 RMK A01 T00271002  RH  081%=      5-min Rain = 0
KDO2 141622Z 13007KT 03/M00 A3041 RMK A01 T00261002  RH  082%=      5-min Rain = 0
KDO2 141623Z 14007KT 03/M00 A3041 RMK A01 T00261002  RH  082%=      5-min Rain = 0
KDO2 141624Z 13006KT 02/M01 A3041 RMK A01 T00241005  RH  081%=      5-min Rain = 0
KDO2 141625Z 13004KT 02/M01 A3041 RMK A01 T00231005  RH  082%=      5-min Rain = 0
KDO2 141626Z 12004KT 02/M00 A3041 RMK A01 T00241002  RH  083%=      5-min Rain = 0
KDO2 141627Z 12005KT 03/M00 A3041 RMK A01 T00261002  RH  082%=      5-min Rain = 0
KDO2 141628Z 13008KT 03/M00 A3041 RMK A01 T00271001  RH  082%=      5-min Rain = 0
KDO2 141629Z 13007KT 03/M00 A3041 RMK A01 T00271001  RH  082%=      5-min Rain = 0
KDO2 141630Z 13005KT 03/M01 A3041 RMK A01 T00261005  RH  080%=      5-min Rain = 0
KDO2 141631Z 11007KT 03/M00 A3041 RMK A01 T00271001  RH  082%=      5-min Rain = 0
KDO2 141632Z 10006KT 03/00 A3041 RMK A01 T00310004  RH  083%=      5-min Rain = 0
KDO2 141633Z 08005KT 03/00 A3041 RMK A01 T00320003  RH  081%=      5-min Rain = 0
KDO2 141634Z 09006KT 03/00 A3041 RMK A01 T00320002  RH  080%=      5-min Rain = 0
KDO2 141635Z 11006KT 03/M00 A3041 RMK A01 T00311001  RH  080%=      5-min Rain = 0
KDO2 141636Z 09005KT 03/00 A3041 RMK A01 T003100-0  RH  080%=      5-min Rain = 0
KDO2 141637Z 09006KT 03/00 A3041 RMK A01 T00310002  RH  081%=      5-min Rain = 0
KDO2 141638Z 12005KT 03/01 A3041 RMK A01 T00320005  RH  082%=      5-min Rain = 0
KDO2 141639Z 12005KT 03/00 A3041 RMK A01 T00340002  RH  080%=      5-min Rain = 0
KDO2 141640Z 14006KT 04/00 A3041 RMK A01 T00350001  RH  078%=      5-min Rain = 0
KDO2 141641Z 12006KT 04/00 A3041 RMK A01 T00370003  RH  078%=      5-min Rain = 0
KDO2 141642Z 09006KT 04/00 A3041 RMK A01 T00390003  RH  077%=      5-min Rain = 0
KDO2 141643Z 09007KT 04/00 A3041 RMK A01 T00380002  RH  077%=      5-min Rain = 0
KDO2 141644Z 09005KT 04/00 A3041 RMK A01 T00370001  RH  077%=      5-min Rain = 0
KDO2 141645Z 12005KT 04/00 A3041 RMK A01 T00370002  RH  078%=      5-min Rain = 0
KDO2 141646Z 12007KT 04/00 A3041 RMK A01 T00370001  RH  077%=      5-min Rain = 0
KDO2 141647Z 13008KT 04/00 A3041 RMK A01 T00380001  RH  076%=      5-min Rain = 0
KDO2 141648Z 14009KT 04/M00 A3041 RMK A01 T00381002  RH  075%=      5-min Rain = 0
KDO2 141649Z 13009KT 04/00 A3041 RMK A01 T003800-0  RH  076%=      5-min Rain = 0
KDO2 141650Z 13008KT 04/00 A3041 RMK A01 T00410002  RH  076%=      5-min Rain = 0
KDO2 141651Z 10007KT 04/M00 A3041 RMK A01 T00411001  RH  074%=      5-min Rain = 0
KDO2 141652Z 09008KT 04/M00 A3041 RMK A01 T00391001  RH  075%=      5-min Rain = 0
KDO2 141653Z 10006KT 04/M00 A3041 RMK A01 T00391002  RH  074%=      5-min Rain = 0
KDO2 141654Z 11007KT 04/00 A3041 RMK A01 T00390001  RH  076%=      5-min Rain = 0
KDO2 141655Z 10008KT 05/01 A3041 RMK A01 T00450011  RH  079%=      5-min Rain = 0
KDO2 141656Z 08007KT 05/00 A3041 RMK A01 T00470004  RH  074%=      5-min Rain = 0
KDO2 141657Z 08006KT 05/00 A3041 RMK A01 T00450002  RH  074%=      5-min Rain = 0
KDO2 141658Z 09005KT 04/00 A304 RMK A01 T00440001  RH  073%=      5-min Rain = 0
KDO2 141659Z 09008KT 04/00 A304 RMK A01 T00440003  RH  075%=      5-min Rain = 0
KDO2 141700Z 10007KT 05/00 A304 RMK A01 T00460002  RH  073%=      5-min Rain = 0
KDO2 141701Z 09007KT 05/00 A304 RMK A01 T00460002  RH  073%=      5-min Rain = 0
KDO2 141702Z 09010KT 05/00 A304 RMK A01 T004500-0  RH  072%=      5-min Rain = 0
KDO2 141703Z 09007KT 05/00 A304 RMK A01 T00450002  RH  073%=      5-min Rain = 0
KDO2 141704Z 09008KT 05/00 A304 RMK A01 T00450003  RH  074%=      5-min Rain = 0
KDO2 141705Z 09007KT 05/00 A304 RMK A01 T00460003  RH  074%=      5-min Rain = 0
KDO2 141706Z 10007KT 05/00 A304 RMK A01 T00460004  RH  074%=      5-min Rain = 0
KDO2 141707Z 10008KT 05/00 A304 RMK A01 T00470003  RH  073%=      5-min Rain = 0
KDO2 141708Z 10010KT 05/00 A304 RMK A01 T00480002  RH  072%=      5-min Rain = 0
KDO2 141709Z 10009KT 05/00 A304 RMK A01 T00490003  RH  072%=      5-min Rain = 0
KDO2 141710Z 12007KT 05/01 A304 RMK A01 T00500005  RH  073%=      5-min Rain = 0
KDO2 141711Z 10006KT 05/01 A304 RMK A01 T00510005  RH  072%=      5-min Rain = 0
KDO2 141712Z 09005KT 05/00 A304 RMK A01 T00500002  RH  071%=      5-min Rain = 0
KDO2 141713Z 10006KT 05/01 A304 RMK A01 T00510008  RH  074%=      5-min Rain = 0
KDO2 141714Z 09008KT 05/01 A304 RMK A01 T00540008  RH  072%=      5-min Rain = 0
KDO2 141715Z 09008KT 06/01 A304 RMK A01 T00550006  RH  071%=      5-min Rain = 0
KDO2 141716Z 09009KT 06/01 A304 RMK A01 T00550005  RH  070%=      5-min Rain = 0
KDO2 141717Z 10007KT 06/01 A304 RMK A01 T00550005  RH  070%=      5-min Rain = 0
KDO2 141718Z 09007KT 05/00 A304 RMK A01 T00520001  RH  070%=      5-min Rain = 0
KDO2 141719Z 08005KT 05/00 A304 RMK A01 T00500003  RH  071%=      5-min Rain = 0
KDO2 141720Z 14005KT 05/01 A304 RMK A01 T00530008  RH  073%=      5-min Rain = 0
KDO2 141721Z 11005KT 05/01 A304 RMK A01 T00540006  RH  071%=      5-min Rain = 0
KDO2 141722Z 13006KT 06/01 A304 RMK A01 T00550006  RH  071%=      5-min Rain = 0
KDO2 141723Z 14007KT 06/01 A304 RMK A01 T00560005  RH  070%=      5-min Rain = 0
KDO2 141724Z 13007KT 06/00 A304 RMK A01 T00570004  RH  068%=      5-min Rain = 0
KDO2 141725Z 12007KT 06/00 A304 RMK A01 T00570002  RH  068%=      5-min Rain = 0
KDO2 141726Z 12006KT 06/00 A304 RMK A01 T00570004  RH  069%=      5-min Rain = 0
KDO2 141727Z 13006KT 06/00 A304 RMK A01 T00580004  RH  069%=      5-min Rain = 0
KDO2 141728Z 09007KT 06/01 A304 RMK A01 T00580006  RH  069%=      5-min Rain = 0
KDO2 141729Z 09006KT 06/01 A3039 RMK A01 T00590006  RH  069%=      5-min Rain = 0
KDO2 141730Z 12004KT 06/00 A3039 RMK A01 T00570001  RH  067%=      5-min Rain = 0
KDO2 141731Z 13007KT 06/00 A3039 RMK A01 T00570004  RH  069%=      5-min Rain = 0
KDO2 141732Z 13006KT 06/01 A3039 RMK A01 T00590005  RH  069%=      5-min Rain = 0
KDO2 141733Z 15007KT 06/01 A3039 RMK A01 T00600008  RH  069%=      5-min Rain = 0
KDO2 141734Z 15005KT 06/01 A3039 RMK A01 T00620006  RH  067%=      5-min Rain = 0
KDO2 141735Z 17006KT 06/01 A3039 RMK A01 T00620007  RH  068%=      5-min Rain = 0
KDO2 141736Z 17006KT 06/01 A3039 RMK A01 T00620005  RH  067%=      5-min Rain = 0
KDO2 141737Z 16004G9KT 06/00 A3039 RMK A01 T00590002  RH  067%=      5-min Rain = 0
KDO2 141738Z 16008KT 06/01 A3039 RMK A01 T00590009  RH  070%=      5-min Rain = 0
KDO2 141739Z 16005KT 06/01 A3039 RMK A01 T00610007  RH  068%=      5-min Rain = 0
KDO2 141740Z 16005KT 06/01 A3039 RMK A01 T00610006  RH  068%=      5-min Rain = 0
KDO2 141741Z 14005KT 06/01 A3039 RMK A01 T00610005  RH  068%=      5-min Rain = 0
KDO2 141742Z 16005KT 06/01 A3039 RMK A01 T00610010  RH  070%=      5-min Rain = 0
KDO2 141743Z 15005KT 06/01 A3039 RMK A01 T00620006  RH  067%=      5-min Rain = 0
KDO2 141744Z 12007KT 06/00 A3039 RMK A01 T00620004  RH  067%=      5-min Rain = 0
KDO2 141745Z 12007KT 06/01 A3039 RMK A01 T00620007  RH  068%=      5-min Rain = 0
KDO2 141746Z 10004KT 06/00 A3039 RMK A01 T00620004  RH  066%=      5-min Rain = 0
KDO2 141747Z 09003KT 06/01 A3039 RMK A01 T00620006  RH  067%=      5-min Rain = 0
KDO2 141748Z 15005KT 06/01 A3039 RMK A01 T00630008  RH  068%=      5-min Rain = 0
KDO2 141749Z 17004KT 07/01 A3039 RMK A01 T00650008  RH  067%=      5-min Rain = 0
KDO2 141750Z 13008KT 07/01 A3039 RMK A01 T00660010  RH  067%=      5-min Rain = 0
KDO2 141751Z 11006KT 07/01 A3038 RMK A01 T00700012  RH  067%=      5-min Rain = 0
KDO2 141752Z 09005KT 07/01 A3038 RMK A01 T00710006  RH  063%=      5-min Rain = 0
KDO2 141753Z 09004KT 07/00 A3038 RMK A01 T00700003  RH  063%=      5-min Rain = 0
KDO2 141754Z 09006KT 07/01 A3038 RMK A01 T00690009  RH  065%=      5-min Rain = 0
KDO2 141755Z 09006KT 07/01 A3038 RMK A01 T00710009  RH  065%=      5-min Rain = 0
KDO2 141756Z 10007KT 07/01 A3038 RMK A01 T00710008  RH  064%=      5-min Rain = 0
KDO2 141757Z 14006KT 07/01 A3038 RMK A01 T00720007  RH  064%=      5-min Rain = 0
KDO2 141758Z 15004KT 07/01 A3038 RMK A01 T00720005  RH  062%=      5-min Rain = 0
KDO2 141759Z 13006KT 07/01 A3038 RMK A01 T00740009  RH  063%=      5-min Rain = 0
KDO2 141800Z 14008KT 08/01 A3038 RMK A01 T00760005  RH  061%=      5-min Rain = 0
KDO2 141801Z 13007KT 08/00 A3038 RMK A01 T00770004  RH  060%=      5-min Rain = 0
KDO2 141802Z 12006KT 08/00 A3038 RMK A01 T00750002  RH  060%=      5-min Rain = 0
KDO2 141803Z 13007KT 07/00 A3038 RMK A01 T00740003  RH  061%=      5-min Rain = 0
KDO2 141804Z 12007KT 07/00 A3038 RMK A01 T00740004  RH  061%=      5-min Rain = 0
KDO2 141805Z 11007KT 07/01 A3038 RMK A01 T00740006  RH  062%=      5-min Rain = 0
KDO2 141806Z 10006KT 07/01 A3037 RMK A01 T00730006  RH  062%=      5-min Rain = 0
KDO2 141807Z 08005KT 07/00 A3037 RMK A01 T00730004  RH  062%=      5-min Rain = 0
KDO2 141808Z 10007KT 07/00 A3037 RMK A01 T00730004  RH  062%=      5-min Rain = 0
KDO2 141809Z 14008KT 08/00 A3037 RMK A01 T00750004  RH  061%=      5-min Rain = 0
KDO2 141810Z 14009KT 08/00 A3037 RMK A01 T00790004  RH  059%=      5-min Rain = 0
KDO2 141811Z 15007KT 08/00 A3037 RMK A01 T00780000  RH  058%=      5-min Rain = 0
KDO2 141812Z 14007KT 08/00 A3037 RMK A01 T00770002  RH  059%=      5-min Rain = 0
KDO2 141813Z 14004KT 08/00 A3037 RMK A01 T00770003  RH  060%=      5-min Rain = 0
KDO2 141814Z 13007KT 08/01 A3037 RMK A01 T00790007  RH  060%=      5-min Rain = 0
KDO2 141815Z 12008KT 08/01 A3037 RMK A01 T00820012  RH  061%=      5-min Rain = 0
KDO2 141816Z 10008KT 08/01 A3037 RMK A01 T00840009  RH  059%=      5-min Rain = 0
KDO2 141817Z 10008KT 08/01 A3037 RMK A01 T00840006  RH  058%=      5-min Rain = 0
KDO2 141818Z 10008KT 08/01 A3037 RMK A01 T00840008  RH  059%=      5-min Rain = 0
KDO2 141819Z 11006KT 08/01 A3037 RMK A01 T00840007  RH  058%=      5-min Rain = 0
KDO2 141820Z 10005KT 08/00 A3036 RMK A01 T00820004  RH  058%=      5-min Rain = 0
KDO2 141821Z 13005KT 08/01 A3036 RMK A01 T00810006  RH  059%=      5-min Rain = 0
KDO2 141822Z 15008KT 08/01 A3036 RMK A01 T00840009  RH  059%=      5-min Rain = 0
KDO2 141823Z 15005KT 09/01 A3036 RMK A01 T00850006  RH  058%=      5-min Rain = 0
KDO2 141824Z 13006KT 09/01 A3036 RMK A01 T00850006  RH  058%=      5-min Rain = 0
KDO2 141825Z 13006KT 09/01 A3036 RMK A01 T00860010  RH  059%=      5-min Rain = 0
KDO2 141826Z 09006KT 09/01 A3036 RMK A01 T00880009  RH  058%=      5-min Rain = 0
KDO2 141827Z 11004KT 09/00 A3036 RMK A01 T00860002  RH  056%=      5-min Rain = 0
KDO2 141828Z 13007KT 08/01 A3036 RMK A01 T00840007  RH  058%=      5-min Rain = 0
KDO2 141829Z 13006KT 09/01 A3036 RMK A01 T00870007  RH  057%=      5-min Rain = 0
KDO2 141830Z 13005KT 09/01 A3035 RMK A01 T00880012  RH  059%=      5-min Rain = 0
KDO2 141831Z 14004KT 09/01 A3035 RMK A01 T00900012  RH  058%=      5-min Rain = 0
KDO2 141832Z 09004KT 09/02 A3035 RMK A01 T00920015  RH  058%=      5-min Rain = 0
KDO2 141833Z 13006KT 09/02 A3035 RMK A01 T00940017  RH  058%=      5-min Rain = 0
KDO2 141834Z 11009KT 10/01 A3035 RMK A01 T00950011  RH  056%=      5-min Rain = 0
KDO2 141835Z 10009KT 09/01 A3035 RMK A01 T00930008  RH  055%=      5-min Rain = 0
KDO2 141836Z 11011KT 09/01 A3035 RMK A01 T00920007  RH  055%=      5-min Rain = 0
KDO2 141837Z 15005KT 09/01 A3035 RMK A01 T00920007  RH  055%=      5-min Rain = 0
KDO2 141838Z 11005KT 09/01 A3035 RMK A01 T00930007  RH  055%=      5-min Rain = 0
KDO2 141839Z 10007KT 09/01 A3035 RMK A01 T00940007  RH  055%=      5-min Rain = 0
KDO2 141840Z 10006KT 09/00 A3035 RMK A01 T00930001  RH  053%=      5-min Rain = 0
KDO2 141841Z 11007KT 09/00 A3035 RMK A01 T00910003  RH  054%=      5-min Rain = 0
KDO2 141842Z 13009KT 09/01 A3035 RMK A01 T00940009  RH  055%=      5-min Rain = 0
KDO2 141843Z 12007KT 10/00 A3035 RMK A01 T009600-0  RH  051%=      5-min Rain = 0
KDO2 141844Z 14010G16KT 10/00 A3034 RMK A01 T00950004  RH  053%=      5-min Rain = 0
KDO2 141845Z 15010KT 10/00 A3034 RMK A01 T00990004  RH  052%=      5-min Rain = 0
KDO2 141846Z 15008KT 10/M00 A3034 RMK A01 T00961002  RH  050%=      5-min Rain = 0
KDO2 141847Z 17006KT 09/M00 A3034 RMK A01 T00941004  RH  050%=      5-min Rain = 0
KDO2 141848Z 14005KT 09/M00 A3034 RMK A01 T00921004  RH  051%=      5-min Rain = 0
KDO2 141849Z 14005KT 09/M00 A3034 RMK A01 T00921002  RH  052%=      5-min Rain = 0
KDO2 141850Z 12008KT 09/00 A3034 RMK A01 T00940003  RH  053%=      5-min Rain = 0
KDO2 141851Z 14010KT 10/01 A3034 RMK A01 T00960006  RH  053%=      5-min Rain = 0
KDO2 141852Z 13010KT 10/00 A3034 RMK A01 T00980004  RH  052%=      5-min Rain = 0
KDO2 141853Z 12009KT 10/00 A3034 RMK A01 T00980000  RH  051%=      5-min Rain = 0
KDO2 141854Z 11012KT 10/00 A3034 RMK A01 T00980002  RH  051%=      5-min Rain = 0
KDO2 141855Z 11010KT 10/M00 A3034 RMK A01 T00981001  RH  050%=      5-min Rain = 0
KDO2 141856Z 11009KT 10/M00 A3034 RMK A01 T00981001  RH  050%=      5-min Rain = 0
KDO2 141857Z 11009KT 10/00 A3034 RMK A01 T00980001  RH  051%=      5-min Rain = 0
KDO2 141858Z 12010KT 10/00 A3034 RMK A01 T00990002  RH  051%=      5-min Rain = 0
KDO2 141859Z 12010KT 10/00 A3034 RMK A01 T01010003  RH  051%=      5-min Rain = 0
KDO2 141900Z 12009KT 10/00 A3034 RMK A01 T01010000  RH  050%=      5-min Rain = 0
KDO2 141901Z 11010KT 10/00 A3034 RMK A01 T01010000  RH  050%=      5-min Rain = 0
KDO2 141902Z 12008KT 10/00 A3034 RMK A01 T009900-0  RH  050%=      5-min Rain = 0
KDO2 141903Z 12009KT 10/00 A3033 RMK A01 T009800-0  RH  051%=      5-min Rain = 0
KDO2 141904Z 13009KT 10/00 A3033 RMK A01 T00980000  RH  051%=      5-min Rain = 0
KDO2 141905Z 16007KT 10/00 A3033 RMK A01 T00990003  RH  051%=      5-min Rain = 0
KDO2 141906Z 17006KT 10/00 A3033 RMK A01 T00990002  RH  051%=      5-min Rain = 0
KDO2 141907Z 15008KT 10/00 A3033 RMK A01 T01000003  RH  051%=      5-min Rain = 0
KDO2 141908Z 14008KT 10/01 A3033 RMK A01 T01020006  RH  052%=      5-min Rain = 0
KDO2 141909Z 12008KT 11/01 A3033 RMK A01 T01050005  RH  050%=      5-min Rain = 0
KDO2 141910Z 11011KT 11/01 A3032 RMK A01 T01080011  RH  051%=      5-min Rain = 0
KDO2 141911Z 11012KT 11/00 A3032 RMK A01 T01110004  RH  047%=      5-min Rain = 0
KDO2 141912Z 12012KT 11/00 A3032 RMK A01 T01080003  RH  048%=      5-min Rain = 0
KDO2 141913Z 12011KT 11/00 A3032 RMK A01 T010800-0  RH  047%=      5-min Rain = 0
KDO2 141914Z 14009KT 10/M00 A3032 RMK A01 T01041004  RH  047%=      5-min Rain = 0
KDO2 141915Z 13007KT 10/00 A3032 RMK A01 T01040003  RH  050%=      5-min Rain = 0
KDO2 141916Z 11007KT 11/01 A3032 RMK A01 T01080008  RH  050%=      5-min Rain = 0
KDO2 141917Z 12007KT 11/01 A3032 RMK A01 T01090005  RH  048%=      5-min Rain = 0
KDO2 141918Z 10006KT 11/01 A3032 RMK A01 T01090008  RH  050%=      5-min Rain = 0
KDO2 141919Z 13005KT 11/01 A3032 RMK A01 T01100007  RH  049%=      5-min Rain = 0
KDO2 141920Z 14008G15KT 11/01 A3031 RMK A01 T01110007  RH  049%=      5-min Rain = 0
KDO2 141921Z 16010KT 11/01 A3031 RMK A01 T01140009  RH  048%=      5-min Rain = 0
KDO2 141922Z 16005KT 12/01 A3031 RMK A01 T01150006  RH  047%=      5-min Rain = 0
KDO2 141923Z 13008KT 12/01 A3031 RMK A01 T01150007  RH  047%=      5-min Rain = 0
KDO2 141924Z 12010KT 11/00 A3031 RMK A01 T01140004  RH  046%=      5-min Rain = 0
KDO2 141925Z 12010KT 11/00 A3031 RMK A01 T01120001  RH  047%=      5-min Rain = 0
KDO2 141926Z 13006KT 11/00 A3031 RMK A01 T010900-0  RH  047%=      5-min Rain = 0
KDO2 141927Z 10007KT 11/01 A3031 RMK A01 T01110007  RH  049%=      5-min Rain = 0
KDO2 141928Z 13008KT 11/00 A3031 RMK A01 T01130004  RH  047%=      5-min Rain = 0
KDO2 141929Z 12007KT 11/00 A3031 RMK A01 T01120002  RH  047%=      5-min Rain = 0
KDO2 141930Z 13010KT 11/01 A3031 RMK A01 T01130005  RH  047%=      5-min Rain = 0
KDO2 141931Z 14011KT 11/01 A3031 RMK A01 T01140005  RH  047%=      5-min Rain = 0
KDO2 141932Z 13008KT 12/00 A3031 RMK A01 T011600-0  RH  045%=      5-min Rain = 0
KDO2 141933Z 14006KT 11/00 A3031 RMK A01 T011300-0  RH  045%=      5-min Rain = 0
KDO2 141934Z 14006KT 12/01 A3031 RMK A01 T01150005  RH  047%=      5-min Rain = 0
KDO2 141935Z 14009KT 12/01 A3031 RMK A01 T01190008  RH  047%=      5-min Rain = 0
KDO2 141936Z 14012KT 12/00 A303 RMK A01 T01210003  RH  044%=      5-min Rain = 0
KDO2 141937Z 15010KT 12/00 A303 RMK A01 T01200002  RH  044%=      5-min Rain = 0
KDO2 141938Z 13008KT 12/00 A303 RMK A01 T01190004  RH  045%=      5-min Rain = 0
KDO2 141939Z 14009KT 12/00 A303 RMK A01 T01210004  RH  045%=      5-min Rain = 0
KDO2 141940Z 13009KT 12/00 A303 RMK A01 T01210002  RH  044%=      5-min Rain = 0
KDO2 141941Z 11007KT 12/01 A303 RMK A01 T01210007  RH  045%=      5-min Rain = 0
KDO2 141942Z 12010KT 12/01 A303 RMK A01 T01230006  RH  045%=      5-min Rain = 0
KDO2 141943Z 14012KT 12/00 A303 RMK A01 T01230002  RH  043%=      5-min Rain = 0
KDO2 141944Z 13007KT 12/M00 A303 RMK A01 T01211003  RH  042%=      5-min Rain = 0
KDO2 141945Z 14012KT 12/M00 A303 RMK A01 T01201001  RH  043%=      5-min Rain = 0
KDO2 141946Z 12013KT 12/00 A303 RMK A01 T01230004  RH  044%=      5-min Rain = 0
KDO2 141947Z 14010KT 12/M00 A303 RMK A01 T01231003  RH  042%=      5-min Rain = 0
KDO2 141948Z 15006KT 12/M00 A303 RMK A01 T01201002  RH  043%=      5-min Rain = 0
KDO2 141949Z 15006KT 12/00 A303 RMK A01 T01220002  RH  044%=      5-min Rain = 0
KDO2 141950Z 12006G12KT 12/00 A303 RMK A01 T01240003  RH  043%=      5-min Rain = 0
KDO2 141951Z 11007KT 13/00 A303 RMK A01 T01250001  RH  042%=      5-min Rain = 0
KDO2 141952Z 12009KT 12/M01 A3029 RMK A01 T01241005  RH  041%=      5-min Rain = 0
KDO2 141953Z 14011KT 13/00 A3029 RMK A01 T01250003  RH  043%=      5-min Rain = 0
KDO2 141954Z 14007KT 13/00 A3029 RMK A01 T01260000  RH  042%=      5-min Rain = 0
KDO2 141955Z 11009KT 13/00 A303 RMK A01 T012600-0  RH  042%=      5-min Rain = 0
KDO2 141956Z 11010KT 13/M01 A3029 RMK A01 T01251009  RH  040%=      5-min Rain = 0
KDO2 141957Z 13008KT 12/M00 A3029 RMK A01 T01241004  RH  041%=      5-min Rain = 0
KDO2 141958Z 12007KT 13/M00 A3029 RMK A01 T01271002  RH  041%=      5-min Rain = 0
KDO2 141959Z 11008G14KT 13/M01 A3029 RMK A01 T01251006  RH  041%=      5-min Rain = 0
KDO2 142000Z 12011KT 13/M00 A3029 RMK A01 T01261001  RH  042%=      5-min Rain = 0
KDO2 142001Z 11010KT 13/M00 A3029 RMK A01 T01271004  RH  040%=      5-min Rain = 0
KDO2 142002Z 12009KT 13/M00 A3029 RMK A01 T01271003  RH  041%=      5-min Rain = 0
KDO2 142003Z 12009KT 13/M01 A3029 RMK A01 T01271005  RH  040%=      5-min Rain = 0
KDO2 142004Z 14010KT 13/M00 A3029 RMK A01 T01271003  RH  041%=      5-min Rain = 0
KDO2 142005Z 14009KT 13/M01 A3029 RMK A01 T01261005  RH  040%=      5-min Rain = 0
KDO2 142006Z 14009KT 13/M00 A3029 RMK A01 T01261004  RH  041%=      5-min Rain = 0
KDO2 142007Z 13009KT 13/M00 A3029 RMK A01 T01261003  RH  041%=      5-min Rain = 0
KDO2 142008Z 11010KT 13/M00 A3029 RMK A01 T01281004  RH  040%=      5-min Rain = 0
KDO2 142009Z 12011KT 13/M01 A3029 RMK A01 T01271006  RH  040%=      5-min Rain = 0
KDO2 142010Z 12012KT 13/M00 A3029 RMK A01 T01271002  RH  041%=      5-min Rain = 0
KDO2 142011Z 11011KT 13/M00 A3029 RMK A01 T01301003  RH  040%=      5-min Rain = 0
KDO2 142012Z 10009KT 13/M01 A3029 RMK A01 T01311007  RH  038%=      5-min Rain = 0
KDO2 142013Z 10009G20KT 13/M00 A3028 RMK A01 T01311004  RH  039%=      5-min Rain = 0
KDO2 142014Z 15015G24KT 13/M00 A3028 RMK A01 T01341001  RH  039%=      5-min Rain = 0
KDO2 142015Z 16008KT 13/M01 A3028 RMK A01 T01341012  RH  036%=      5-min Rain = 0
KDO2 142016Z 15010KT 13/M01 A3028 RMK A01 T01331006  RH  038%=      5-min Rain = 0
KDO2 142017Z 14012KT 14/00 A3028 RMK A01 T01360000  RH  039%=      5-min Rain = 0
KDO2 142018Z 14011KT 14/M00 A3028 RMK A01 T01381002  RH  038%=      5-min Rain = 0
KDO2 142019Z 14010KT 14/M01 A3028 RMK A01 T01361005  RH  038%=      5-min Rain = 0
KDO2 142020Z 13013KT 14/M01 A3028 RMK A01 T01361008  RH  037%=      5-min Rain = 0
KDO2 142021Z 14011KT 13/M01 A3028 RMK A01 T01341008  RH  038%=      5-min Rain = 0
KDO2 142022Z 14009KT 13/M01 A3028 RMK A01 T01331008  RH  038%=      5-min Rain = 0
KDO2 142023Z 12008KT 13/M01 A3028 RMK A01 T01331009  RH  037%=      5-min Rain = 0
KDO2 142024Z 14008KT 13/M01 A3028 RMK A01 T01331006  RH  038%=      5-min Rain = 0
KDO2 142025Z 14010G15KT 13/M01 A3028 RMK A01 T01341008  RH  038%=      5-min Rain = 0
KDO2 142026Z 13014KT 13/M01 A3028 RMK A01 T01341005  RH  038%=      5-min Rain = 0
KDO2 142027Z 13012KT 14/M01 A3028 RMK A01 T01351007  RH  038%=      5-min Rain = 0
KDO2 142028Z 13010KT 13/M01 A3028 RMK A01 T01341008  RH  038%=      5-min Rain = 0
KDO2 142029Z 12011KT 13/M01 A3028 RMK A01 T01331008  RH  038%=      5-min Rain = 0
KDO2 142030Z 12011KT 13/M01 A3028 RMK A01 T01321008  RH  038%=      5-min Rain = 0
KDO2 142031Z 12012KT 13/M01 A3028 RMK A01 T01321005  RH  039%=      5-min Rain = 0
KDO2 142032Z 12010KT 13/M01 A3028 RMK A01 T01331006  RH  038%=      5-min Rain = 0
KDO2 142033Z 09011KT 14/M00 A3028 RMK A01 T01351003  RH  039%=      5-min Rain = 0
KDO2 142034Z 10012KT 13/M01 A3028 RMK A01 T01341007  RH  038%=      5-min Rain = 0
KDO2 142035Z 11010KT 13/M01 A3028 RMK A01 T01321007  RH  038%=      5-min Rain = 0
KDO2 142036Z 10012KT 13/M01 A3027 RMK A01 T01321005  RH  039%=      5-min Rain = 0
KDO2 142037Z 12013KT 13/M01 A3027 RMK A01 T01321006  RH  039%=      5-min Rain = 0
KDO2 142038Z 12010KT 13/M01 A3027 RMK A01 T01341005  RH  038%=      5-min Rain = 0
KDO2 142039Z 12009KT 14/M01 A3027 RMK A01 T01351006  RH  038%=      5-min Rain = 0
KDO2 142040Z 11008KT 13/M01 A3027 RMK A01 T01341006  RH  038%=      5-min Rain = 0
KDO2 142041Z 13011KT 14/M01 A3027 RMK A01 T01351005  RH  038%=      5-min Rain = 0
KDO2 142042Z 13012KT 14/M00 A3027 RMK A01 T01361004  RH  038%=      5-min Rain = 0
KDO2 142043Z 13010KT 14/M01 A3027 RMK A01 T01371005  RH  038%=      5-min Rain = 0
KDO2 142044Z 14009G15KT 14/M01 A3027 RMK A01 T01361005  RH  038%=      5-min Rain = 0
KDO2 142045Z 16013KT 14/00 A3027 RMK A01 T01380002  RH  039%=      5-min Rain = 0
KDO2 142046Z 13012KT 14/M00 A3027 RMK A01 T01401003  RH  038%=      5-min Rain = 0
KDO2 142047Z 13011KT 14/M01 A3027 RMK A01 T01381005  RH  037%=      5-min Rain = 0
KDO2 142048Z 14012G17KT 14/M01 A3027 RMK A01 T01371006  RH  038%=      5-min Rain = 0
KDO2 142049Z 14012KT 14/M01 A3027 RMK A01 T01371005  RH  038%=      5-min Rain = 0
KDO2 142050Z 15012KT 14/M01 A3027 RMK A01 T01361010  RH  037%=      5-min Rain = 0
KDO2 142051Z 14010KT 14/M01 A3027 RMK A01 T01351009  RH  037%=      5-min Rain = 0
KDO2 142052Z 13010KT 13/M01 A3027 RMK A01 T01331010  RH  037%=      5-min Rain = 0
KDO2 142053Z 14009KT 13/M01 A3027 RMK A01 T01331006  RH  038%=      5-min Rain = 0
KDO2 142054Z 14012KT 14/M01 A3026 RMK A01 T01351006  RH  038%=      5-min Rain = 0
KDO2 142055Z 14011KT 13/M01 A3026 RMK A01 T01341008  RH  037%=      5-min Rain = 0
KDO2 142056Z 14009KT 13/M01 A3026 RMK A01 T01341007  RH  038%=      5-min Rain = 0
KDO2 142057Z 14012KT 14/M00 A3026 RMK A01 T01361003  RH  038%=      5-min Rain = 0
KDO2 142058Z 15009KT 14/M01 A3026 RMK A01 T01381005  RH  037%=      5-min Rain = 0
KDO2 142059Z 15007KT 14/M01 A3026 RMK A01 T01381008  RH  037%=      5-min Rain = 0
KDO2 142100Z 13010KT 14/M01 A3026 RMK A01 T01381005  RH  037%=      5-min Rain = 0
KDO2 142101Z 12010KT 14/M01 A3026 RMK A01 T01381008  RH  036%=      5-min Rain = 0
KDO2 142102Z 14010KT 14/M01 A3026 RMK A01 T01361007  RH  037%=      5-min Rain = 0
KDO2 142103Z 15012KT 14/M01 A3026 RMK A01 T01371006  RH  037%=      5-min Rain = 0
KDO2 142104Z 16013KT 14/M01 A3026 RMK A01 T01371005  RH  038%=      5-min Rain = 0
KDO2 142105Z 15007KT 14/M01 A3026 RMK A01 T01371005  RH  037%=      5-min Rain = 0
KDO2 142106Z 11008KT 14/M01 A3026 RMK A01 T01371006  RH  038%=      5-min Rain = 0
KDO2 142107Z 12008KT 14/M01 A3026 RMK A01 T01371005  RH  038%=      5-min Rain = 0
KDO2 142108Z 12010KT 14/M01 A3026 RMK A01 T01361005  RH  038%=      5-min Rain = 0
KDO2 142109Z 12009KT 14/M01 A3026 RMK A01 T01371009  RH  037%=      5-min Rain = 0
KDO2 142110Z 13009KT 14/M01 A3026 RMK A01 T01361007  RH  037%=      5-min Rain = 0
KDO2 142111Z 14009KT 14/M01 A3026 RMK A01 T01371006  RH  037%=      5-min Rain = 0
KDO2 142112Z 14011KT 14/00 A3026 RMK A01 T013900-0  RH  039%=      5-min Rain = 0
KDO2 142113Z 13008KT 14/00 A3026 RMK A01 T01430002  RH  038%=      5-min Rain = 0
KDO2 142114Z 13011KT 15/M00 A3025 RMK A01 T01451001  RH  037%=      5-min Rain = 0
KDO2 142115Z 14011KT 14/M00 A3025 RMK A01 T01431004  RH  036%=      5-min Rain = 0
KDO2 142116Z 15015KT 14/M00 A3025 RMK A01 T01431002  RH  037%=      5-min Rain = 0
KDO2 142117Z 14013KT 14/M01 A3025 RMK A01 T01431007  RH  036%=      5-min Rain = 0
KDO2 142118Z 15012KT 14/M01 A3025 RMK A01 T01401007  RH  037%=      5-min Rain = 0
KDO2 142119Z 14010KT 14/M00 A3025 RMK A01 T01401003  RH  038%=      5-min Rain = 0
KDO2 142120Z 14010KT 14/M01 A3025 RMK A01 T01401006  RH  036%=      5-min Rain = 0
KDO2 142121Z 15010KT 14/M01 A3025 RMK A01 T01381008  RH  037%=      5-min Rain = 0
KDO2 142122Z 15007KT 14/M01 A3025 RMK A01 T01381006  RH  037%=      5-min Rain = 0
KDO2 142123Z 16009KT 14/M00 A3025 RMK A01 T01381004  RH  038%=      5-min Rain = 0
KDO2 142124Z 15011KT 14/00 A3025 RMK A01 T013900-0  RH  038%=      5-min Rain = 0
KDO2 142125Z 13011KT 14/00 A3025 RMK A01 T01420002  RH  039%=      5-min Rain = 0
KDO2 142126Z 13009KT 14/M00 A3025 RMK A01 T01421003  RH  037%=      5-min Rain = 0
KDO2 142127Z 12010KT 14/00 A3025 RMK A01 T01410002  RH  038%=      5-min Rain = 0
KDO2 142128Z 11009KT 14/M00 A3025 RMK A01 T01421004  RH  037%=      5-min Rain = 0
KDO2 142129Z 11009KT 14/M00 A3025 RMK A01 T01391004  RH  038%=      5-min Rain = 0
KDO2 142130Z 14010KT 14/M00 A3025 RMK A01 T01391004  RH  037%=      5-min Rain = 0
KDO2 142131Z 16012KT 14/00 A3025 RMK A01 T01390000  RH  039%=      5-min Rain = 0
KDO2 142132Z 15011KT 14/00 A3025 RMK A01 T01420003  RH  039%=      5-min Rain = 0
KDO2 142133Z 15011KT 14/M00 A3025 RMK A01 T01421003  RH  037%=      5-min Rain = 0
KDO2 142134Z 14011KT 14/00 A3025 RMK A01 T01400000  RH  038%=      5-min Rain = 0
KDO2 142135Z 14012KT 14/M00 A3025 RMK A01 T01401001  RH  038%=      5-min Rain = 0
KDO2 142136Z 14010KT 14/M00 A3025 RMK A01 T01391002  RH  038%=      5-min Rain = 0
KDO2 142137Z 16009KT 14/M00 A3025 RMK A01 T01391001  RH  038%=      5-min Rain = 0
KDO2 142138Z 15009G15KT 14/M00 A3025 RMK A01 T01381002  RH  038%=      5-min Rain = 0
KDO2 142139Z 14010KT 14/00 A3025 RMK A01 T01380000  RH  039%=      5-min Rain = 0
KDO2 142140Z 14009KT 14/M00 A3025 RMK A01 T01381001  RH  038%=      5-min Rain = 0
KDO2 142141Z 15009KT 14/00 A3025 RMK A01 T01390003  RH  039%=      5-min Rain = 0
KDO2 142142Z 16011KT 14/00 A3025 RMK A01 T01410004  RH  039%=      5-min Rain = 0
KDO2 142143Z 16011KT 14/01 A3025 RMK A01 T01440010  RH  040%=      5-min Rain = 0
KDO2 142144Z 14012KT 15/01 A3025 RMK A01 T01450005  RH  039%=      5-min Rain = 0
KDO2 142145Z 14010KT 14/00 A3025 RMK A01 T01420002  RH  038%=      5-min Rain = 0
KDO2 142146Z 14011KT 14/00 A3025 RMK A01 T01410003  RH  039%=      5-min Rain = 0
KDO2 142147Z 15008KT 14/01 A3025 RMK A01 T01410005  RH  039%=      5-min Rain = 0
KDO2 142148Z 14010KT 14/00 A3025 RMK A01 T01410004  RH  039%=      5-min Rain = 0
KDO2 142149Z 14011KT 14/00 A3025 RMK A01 T01410003  RH  039%=      5-min Rain = 0
KDO2 142150Z 13011KT 14/00 A3025 RMK A01 T01410003  RH  039%=      5-min Rain = 0
KDO2 142151Z 13011KT 14/00 A3025 RMK A01 T01410003  RH  039%=      5-min Rain = 0
KDO2 142152Z 12012KT 14/01 A3025 RMK A01 T01410005  RH  039%=      5-min Rain = 0
KDO2 142153Z 12010KT 14/01 A3025 RMK A01 T01400005  RH  040%=      5-min Rain = 0
KDO2 142154Z 14010KT 14/01 A3025 RMK A01 T01400007  RH  040%=      5-min Rain = 0
KDO2 142155Z 14011G17KT 14/01 A3025 RMK A01 T01420006  RH  039%=      5-min Rain = 0
KDO2 142156Z 15012G17KT 14/00 A3025 RMK A01 T01430003  RH  038%=      5-min Rain = 0
KDO2 142157Z 15010KT 14/00 A3025 RMK A01 T01420003  RH  039%=      5-min Rain = 0
KDO2 142158Z 15009KT 14/00 A3025 RMK A01 T01420004  RH  039%=      5-min Rain = 0
KDO2 142159Z 18009KT 14/01 A3025 RMK A01 T01420005  RH  039%=      5-min Rain = 0
KDO2 142200Z 16010KT 14/01 A3025 RMK A01 T01430005  RH  039%=      5-min Rain = 0
KDO2 142201Z 15009KT 14/00 A3025 RMK A01 T01420001  RH  038%=      5-min Rain = 0
KDO2 142202Z 15010KT 14/00 A3025 RMK A01 T01410004  RH  039%=      5-min Rain = 0
KDO2 142203Z 15008KT 14/00 A3025 RMK A01 T01410004  RH  039%=      5-min Rain = 0
KDO2 142204Z 12010KT 14/01 A3025 RMK A01 T01410007  RH  040%=      5-min Rain = 0
KDO2 142205Z 12013KT 14/01 A3025 RMK A01 T01420005  RH  039%=      5-min Rain = 0
KDO2 142206Z 13013KT 14/00 A3024 RMK A01 T01420004  RH  039%=      5-min Rain = 0
KDO2 142207Z 14013KT 14/00 A3025 RMK A01 T01420004  RH  039%=      5-min Rain = 0
KDO2 142208Z 13012KT 14/00 A3025 RMK A01 T01420004  RH  039%=      5-min Rain = 0
KDO2 142209Z 14010KT 14/01 A3025 RMK A01 T01420006  RH  039%=      5-min Rain = 0
KDO2 142210Z 12009KT 14/01 A3025 RMK A01 T01420005  RH  039%=      5-min Rain = 0
KDO2 142211Z 13012KT 14/01 A3025 RMK A01 T01420005  RH  039%=      5-min Rain = 0
KDO2 142212Z 13011KT 14/01 A3025 RMK A01 T01420006  RH  039%=      5-min Rain = 0
KDO2 142213Z 14010KT 14/01 A3025 RMK A01 T01420007  RH  040%=      5-min Rain = 0
KDO2 142214Z 14012KT 14/01 A3024 RMK A01 T01430006  RH  039%=      5-min Rain = 0
KDO2 142215Z 13012KT 14/01 A3024 RMK A01 T01430006  RH  039%=      5-min Rain = 0
KDO2 142216Z 13013KT 14/01 A3024 RMK A01 T01430008  RH  040%=      5-min Rain = 0
KDO2 142217Z 13013KT 14/01 A3024 RMK A01 T01440005  RH  039%=      5-min Rain = 0
KDO2 142218Z 13013KT 14/01 A3024 RMK A01 T01420006  RH  039%=      5-min Rain = 0
KDO2 142219Z 14012KT 14/01 A3024 RMK A01 T01430006  RH  039%=      5-min Rain = 0
KDO2 142220Z 13011KT 14/01 A3024 RMK A01 T01430005  RH  039%=      5-min Rain = 0
KDO2 142221Z 13010KT 14/01 A3024 RMK A01 T01420005  RH  039%=      5-min Rain = 0
KDO2 142222Z 14012KT 14/00 A3024 RMK A01 T01420004  RH  039%=      5-min Rain = 0
KDO2 142223Z 14014KT 14/00 A3024 RMK A01 T01410004  RH  039%=      5-min Rain = 0
KDO2 142224Z 15013KT 14/00 A3024 RMK A01 T01420003  RH  039%=      5-min Rain = 0
KDO2 142225Z 16010KT 14/00 A3024 RMK A01 T01420003  RH  039%=      5-min Rain = 0
KDO2 142226Z 15010KT 14/00 A3024 RMK A01 T01420003  RH  039%=      5-min Rain = 0
KDO2 142227Z 14010KT 14/01 A3024 RMK A01 T01430006  RH  039%=      5-min Rain = 0
KDO2 142228Z 14012KT 14/01 A3024 RMK A01 T01440009  RH  040%=      5-min Rain = 0
KDO2 142229Z 13010KT 15/01 A3024 RMK A01 T01450007  RH  039%=      5-min Rain = 0
KDO2 142230Z 13009KT 14/01 A3024 RMK A01 T01440008  RH  039%=      5-min Rain = 0
KDO2 142231Z 14011KT 15/01 A3024 RMK A01 T01460010  RH  040%=      5-min Rain = 0
KDO2 142232Z 14010KT 15/01 A3024 RMK A01 T01460008  RH  039%=      5-min Rain = 0
KDO2 142233Z 14011KT 15/01 A3024 RMK A01 T01470008  RH  039%=      5-min Rain = 0
KDO2 142234Z 15011KT 15/01 A3024 RMK A01 T01460006  RH  038%=      5-min Rain = 0
KDO2 142235Z 13009KT 15/01 A3024 RMK A01 T01450008  RH  039%=      5-min Rain = 0
KDO2 142236Z 15010KT 15/01 A3024 RMK A01 T01460010  RH  040%=      5-min Rain = 0
KDO2 142237Z 14009KT 15/01 A3024 RMK A01 T01460010  RH  039%=      5-min Rain = 0
KDO2 142238Z 13013KT 15/01 A3024 RMK A01 T01470009  RH  039%=      5-min Rain = 0
KDO2 142239Z 13013KT 15/01 A3024 RMK A01 T01470006  RH  038%=      5-min Rain = 0
KDO2 142240Z 14010KT 15/00 A3024 RMK A01 T01450003  RH  038%=      5-min Rain = 0
KDO2 142241Z 13009KT 14/01 A3024 RMK A01 T01440005  RH  039%=      5-min Rain = 0
KDO2 142242Z 12012KT 14/01 A3024 RMK A01 T01440006  RH  039%=      5-min Rain = 0
KDO2 142243Z 12010KT 14/01 A3024 RMK A01 T01440006  RH  039%=      5-min Rain = 0
KDO2 142244Z 14010KT 15/01 A3024 RMK A01 T01450009  RH  040%=      5-min Rain = 0
KDO2 142245Z 15012KT 15/01 A3024 RMK A01 T01460008  RH  039%=      5-min Rain = 0
KDO2 142246Z 15011KT 15/00 A3024 RMK A01 T01460004  RH  038%=      5-min Rain = 0
KDO2 142247Z 16008KT 15/00 A3023 RMK A01 T01450003  RH  038%=      5-min Rain = 0
KDO2 142248Z 15011KT 15/01 A3023 RMK A01 T01450007  RH  039%=      5-min Rain = 0
KDO2 142249Z 13013KT 15/01 A3023 RMK A01 T01460007  RH  039%=      5-min Rain = 0
KDO2 142250Z 13013KT 15/00 A3023 RMK A01 T01460004  RH  038%=      5-min Rain = 0
KDO2 142251Z 11012KT 15/00 A3023 RMK A01 T01450004  RH  038%=      5-min Rain = 0
KDO2 142252Z 12014KT 15/00 A3023 RMK A01 T01450002  RH  038%=      5-min Rain = 0
KDO2 142253Z 14012KT 14/00 A3023 RMK A01 T01440002  RH  038%=      5-min Rain = 0
KDO2 142254Z 13012KT 14/00 A3023 RMK A01 T01430003  RH  038%=      5-min Rain = 0
KDO2 142255Z 15012KT 14/00 A3023 RMK A01 T01440003  RH  038%=      5-min Rain = 0
KDO2 142256Z 14012KT 14/00 A3023 RMK A01 T01440002  RH  038%=      5-min Rain = 0
KDO2 142257Z 15009KT 15/00 A3023 RMK A01 T01450002  RH  038%=      5-min Rain = 0
KDO2 142258Z 15007KT 15/00 A3023 RMK A01 T01450004  RH  038%=      5-min Rain = 0
KDO2 142259Z 15009KT 15/01 A3023 RMK A01 T01460007  RH  039%=      5-min Rain = 0
KDO2 142300Z 14012KT 15/01 A3023 RMK A01 T01470006  RH  038%=      5-min Rain = 0
KDO2 142301Z 14012KT 15/00 A3023 RMK A01 T01470003  RH  037%=      5-min Rain = 0
KDO2 142302Z 14011KT 15/00 A3023 RMK A01 T01460004  RH  038%=      5-min Rain = 0
KDO2 142303Z 14012KT 15/01 A3023 RMK A01 T01470006  RH  038%=      5-min Rain = 0
KDO2 142304Z 15011KT 15/00 A3023 RMK A01 T01460004  RH  038%=      5-min Rain = 0
KDO2 142305Z 15010KT 15/01 A3023 RMK A01 T01460007  RH  039%=      5-min Rain = 0
KDO2 142306Z 15013KT 15/01 A3023 RMK A01 T01460006  RH  038%=      5-min Rain = 0
KDO2 142307Z 14013KT 15/00 A3023 RMK A01 T01450002  RH  038%=      5-min Rain = 0
KDO2 142308Z 14013KT 14/00 A3023 RMK A01 T01440003  RH  038%=      5-min Rain = 0
KDO2 142309Z 14010KT 14/00 A3023 RMK A01 T01430001  RH  038%=      5-min Rain = 0
KDO2 142310Z 13011KT 14/00 A3023 RMK A01 T01430001  RH  038%=      5-min Rain = 0
KDO2 142311Z 13011KT 14/00 A3023 RMK A01 T01420002  RH  038%=      5-min Rain = 0
KDO2 142312Z 14012KT 14/00 A3023 RMK A01 T01420003  RH  039%=      5-min Rain = 0
KDO2 142313Z 14013KT 14/00 A3023 RMK A01 T01430004  RH  039%=      5-min Rain = 0
KDO2 142314Z 15012KT 14/00 A3023 RMK A01 T01420002  RH  038%=      5-min Rain = 0
KDO2 142315Z 15012KT 14/00 A3023 RMK A01 T01420002  RH  038%=      5-min Rain = 0
KDO2 142316Z 14011KT 14/00 A3023 RMK A01 T01410003  RH  039%=      5-min Rain = 0
KDO2 142317Z 13012KT 14/00 A3023 RMK A01 T01410003  RH  039%=      5-min Rain = 0
KDO2 142318Z 13013KT 14/00 A3023 RMK A01 T01400002  RH  039%=      5-min Rain = 0
KDO2 142319Z 14012KT 14/00 A3023 RMK A01 T01390001  RH  039%=      5-min Rain = 0
KDO2 142320Z 14010KT 14/00 A3023 RMK A01 T01390001  RH  039%=      5-min Rain = 0
KDO2 142321Z 15010KT 14/00 A3023 RMK A01 T01390003  RH  039%=      5-min Rain = 0
KDO2 142322Z 15009KT 14/00 A3023 RMK A01 T01400004  RH  039%=      5-min Rain = 0
KDO2 142323Z 15009KT 14/00 A3023 RMK A01 T01390004  RH  040%=      5-min Rain = 0
KDO2 142324Z 13010KT 14/01 A3023 RMK A01 T01390005  RH  040%=      5-min Rain = 0
KDO2 142325Z 13011KT 14/00 A3023 RMK A01 T01390003  RH  039%=      5-min Rain = 0
KDO2 142326Z 13011KT 14/00 A3023 RMK A01 T01390003  RH  039%=      5-min Rain = 0
KDO2 142327Z 14012KT 14/00 A3023 RMK A01 T01390003  RH  039%=      5-min Rain = 0
KDO2 142328Z 13012KT 14/00 A3023 RMK A01 T01390002  RH  039%=      5-min Rain = 0
KDO2 142329Z 14010KT 14/00 A3023 RMK A01 T01390002  RH  039%=      5-min Rain = 0
KDO2 142330Z 14009KT 14/00 A3023 RMK A01 T01390003  RH  039%=      5-min Rain = 0
KDO2 142331Z 13009G14KT 14/01 A3023 RMK A01 T01390005  RH  040%=      5-min Rain = 0
KDO2 142332Z 14012KT 14/00 A3023 RMK A01 T01390004  RH  040%=      5-min Rain = 0
KDO2 142333Z 13013KT 14/00 A3023 RMK A01 T01390003  RH  039%=      5-min Rain = 0
KDO2 142334Z 12012KT 14/00 A3023 RMK A01 T01380004  RH  040%=      5-min Rain = 0
KDO2 142335Z 12009KT 14/01 A3023 RMK A01 T01380006  RH  041%=      5-min Rain = 0
KDO2 142336Z 13010KT 14/01 A3023 RMK A01 T01380006  RH  041%=      5-min Rain = 0
KDO2 142337Z 12011KT 14/01 A3023 RMK A01 T01380005  RH  040%=      5-min Rain = 0
KDO2 142338Z 12010KT 14/01 A3023 RMK A01 T01380005  RH  040%=      5-min Rain = 0
KDO2 142339Z 12010KT 14/01 A3023 RMK A01 T01380005  RH  040%=      5-min Rain = 0
KDO2 142340Z 12011KT 14/01 A3023 RMK A01 T01370007  RH  041%=      5-min Rain = 0
KDO2 142341Z 12010KT 14/01 A3023 RMK A01 T01370007  RH  041%=      5-min Rain = 0
KDO2 142342Z 13012KT 14/01 A3023 RMK A01 T01370009  RH  042%=      5-min Rain = 0
KDO2 142343Z 13012KT 14/01 A3023 RMK A01 T01370007  RH  041%=      5-min Rain = 0
KDO2 142344Z 13012KT 14/01 A3023 RMK A01 T01360007  RH  041%=      5-min Rain = 0
KDO2 142345Z 13012KT 14/01 A3023 RMK A01 T01360007  RH  041%=      5-min Rain = 0
KDO2 142346Z 13008KT 14/01 A3023 RMK A01 T01360009  RH  042%=      5-min Rain = 0
KDO2 142347Z 13008KT 14/01 A3023 RMK A01 T01360011  RH  043%=      5-min Rain = 0
KDO2 142348Z 13010KT 14/01 A3023 RMK A01 T01350010  RH  042%=      5-min Rain = 0
KDO2 142349Z 13011KT 14/01 A3023 RMK A01 T01350007  RH  041%=      5-min Rain = 0
KDO2 142350Z 13012KT 14/01 A3023 RMK A01 T01350008  RH  042%=      5-min Rain = 0
KDO2 142351Z 13011KT 13/01 A3023 RMK A01 T01340007  RH  042%=      5-min Rain = 0
KDO2 142352Z 13009KT 13/01 A3023 RMK A01 T01340008  RH  042%=      5-min Rain = 0
KDO2 142353Z 13009KT 13/01 A3023 RMK A01 T01340010  RH  043%=      5-min Rain = 0
KDO2 142354Z 12011KT 13/01 A3023 RMK A01 T01330009  RH  043%=      5-min Rain = 0
KDO2 142355Z 13012KT 13/01 A3023 RMK A01 T01330009  RH  043%=      5-min Rain = 0
KDO2 142356Z 13012KT 13/01 A3023 RMK A01 T01320009  RH  043%=      5-min Rain = 0
KDO2 142357Z 12012KT 13/01 A3023 RMK A01 T01310009  RH  043%=      5-min Rain = 0
KDO2 142358Z 13011KT 13/01 A3023 RMK A01 T01310010  RH  044%=      5-min Rain = 0
KDO2 142359Z 12010KT 13/01 A3023 RMK A01 T01300009  RH  044%=      5-min Rain = 0
KDO2 150000Z 12010KT 13/01 A3023 RMK A01 T01290009  RH  044%=      5-min Rain = 0
KDO2 150001Z 12011KT 13/01 A3023 RMK A01 T01290010  RH  044%=      5-min Rain = 0
KDO2 150002Z 12011KT 13/01 A3023 RMK A01 T01280009  RH  044%=      5-min Rain = 0
KDO2 150003Z 11011KT 13/01 A3023 RMK A01 T01280010  RH  044%=      5-min Rain = 0
KDO2 150004Z 11012KT 13/01 A3023 RMK A01 T01280010  RH  044%=      5-min Rain = 0
KDO2 150005Z 11010KT 13/01 A3023 RMK A01 T01270010  RH  045%=      5-min Rain = 0
KDO2 150006Z 12012KT 13/01 A3023 RMK A01 T01260011  RH  045%=      5-min Rain = 0
KDO2 150007Z 12011KT 13/01 A3023 RMK A01 T01260011  RH  045%=      5-min Rain = 0
KDO2 150008Z 12010KT 13/01 A3023 RMK A01 T01250011  RH  045%=      5-min Rain = 0
KDO2 150009Z 11009KT 13/01 A3023 RMK A01 T01250011  RH  046%=      5-min Rain = 0
KDO2 150010Z 11009KT 12/01 A3023 RMK A01 T01240012  RH  046%=      5-min Rain = 0
KDO2 150011Z 11009KT 12/01 A3023 RMK A01 T01230012  RH  047%=      5-min Rain = 0
KDO2 150012Z 11009KT 12/01 A3023 RMK A01 T01230013  RH  047%=      5-min Rain = 0
KDO2 150013Z 11009KT 12/01 A3023 RMK A01 T01220013  RH  047%=      5-min Rain = 0
KDO2 150014Z 11009KT 12/01 A3023 RMK A01 T01210013  RH  048%=      5-min Rain = 0
KDO2 150015Z 11009KT 12/01 A3023 RMK A01 T01200013  RH  048%=      5-min Rain = 0
KDO2 150016Z 11009KT 12/01 A3023 RMK A01 T01200013  RH  048%=      5-min Rain = 0
KDO2 150017Z 11009KT 12/01 A3023 RMK A01 T01190013  RH  048%=      5-min Rain = 0
KDO2 150018Z 11009KT 12/01 A3023 RMK A01 T01190014  RH  048%=      5-min Rain = 0
KDO2 150019Z 12008KT 12/01 A3023 RMK A01 T01180014  RH  049%=      5-min Rain = 0
KDO2 150020Z 11009KT 12/01 A3023 RMK A01 T01170014  RH  049%=      5-min Rain = 0
KDO2 150021Z 11008KT 12/01 A3023 RMK A01 T01160014  RH  049%=      5-min Rain = 0
KDO2 150022Z 11008KT 12/01 A3023 RMK A01 T01150014  RH  050%=      5-min Rain = 0
KDO2 150023Z 11009KT 11/01 A3023 RMK A01 T01140014  RH  050%=      5-min Rain = 0
KDO2 150024Z 11009KT 11/01 A3023 RMK A01 T01140014  RH  050%=      5-min Rain = 0
KDO2 150025Z 11009KT 11/02 A3023 RMK A01 T01140015  RH  051%=      5-min Rain = 0
KDO2 150026Z 11009KT 11/02 A3023 RMK A01 T01130015  RH  051%=      5-min Rain = 0
KDO2 150027Z 11009KT 11/02 A3023 RMK A01 T01120015  RH  051%=      5-min Rain = 0
KDO2 150028Z 11009KT 11/02 A3023 RMK A01 T01120015  RH  051%=      5-min Rain = 0
KDO2 150029Z 11009KT 11/02 A3023 RMK A01 T01110015  RH  052%=      5-min Rain = 0
KDO2 150030Z 11008KT 11/02 A3023 RMK A01 T01100015  RH  052%=      5-min Rain = 0
KDO2 150031Z 11009KT 11/02 A3023 RMK A01 T01100015  RH  052%=      5-min Rain = 0
KDO2 150032Z 11009KT 11/02 A3023 RMK A01 T01090015  RH  052%=      5-min Rain = 0
KDO2 150033Z 11008KT 11/02 A3023 RMK A01 T01090015  RH  052%=      5-min Rain = 0
KDO2 150034Z 11009KT 11/02 A3023 RMK A01 T01090015  RH  052%=      5-min Rain = 0
KDO2 150035Z 11009KT 11/02 A3023 RMK A01 T01080015  RH  052%=      5-min Rain = 0
KDO2 150036Z 11009KT 11/02 A3023 RMK A01 T01080015  RH  052%=      5-min Rain = 0
KDO2 150037Z 11009KT 11/02 A3023 RMK A01 T01080015  RH  052%=      5-min Rain = 0
KDO2 150038Z 11008KT 11/02 A3023 RMK A01 T01080015  RH  053%=      5-min Rain = 0
KDO2 150039Z 11009KT 11/02 A3023 RMK A01 T01070015  RH  053%=      5-min Rain = 0
KDO2 150040Z 11009KT 11/02 A3023 RMK A01 T01070015  RH  053%=      5-min Rain = 0
KDO2 150041Z 11008KT 11/02 A3023 RMK A01 T01060015  RH  053%=      5-min Rain = 0
KDO2 150042Z 11008KT 11/02 A3023 RMK A01 T01060015  RH  053%=      5-min Rain = 0
KDO2 150043Z 11009KT 11/02 A3023 RMK A01 T01050015  RH  054%=      5-min Rain = 0
KDO2 150044Z 11008KT 11/02 A3023 RMK A01 T01050015  RH  054%=      5-min Rain = 0
KDO2 150045Z 11008KT 10/02 A3023 RMK A01 T01040015  RH  054%=      5-min Rain = 0
KDO2 150046Z 11008KT 10/02 A3024 RMK A01 T01030015  RH  054%=      5-min Rain = 0
KDO2 150047Z 11008KT 10/01 A3023 RMK A01 T01020014  RH  055%=      5-min Rain = 0
KDO2 150048Z 11008KT 10/01 A3023 RMK A01 T01020014  RH  055%=      5-min Rain = 0
KDO2 150049Z 11008KT 10/01 A3023 RMK A01 T01010014  RH  055%=      5-min Rain = 0
KDO2 150050Z 11007KT 10/01 A3023 RMK A01 T01010014  RH  055%=      5-min Rain = 0
KDO2 150051Z 11007KT 10/02 A3023 RMK A01 T01010015  RH  055%=      5-min Rain = 0
KDO2 150052Z 11007KT 10/02 A3024 RMK A01 T01000015  RH  055%=      5-min Rain = 0
KDO2 150053Z 11007KT 10/02 A3023 RMK A01 T00990015  RH  056%=      5-min Rain = 0
KDO2 150054Z 11007KT 10/02 A3023 RMK A01 T00980015  RH  056%=      5-min Rain = 0
KDO2 150055Z 11007KT 10/02 A3023 RMK A01 T00970015  RH  057%=      5-min Rain = 0
KDO2 150056Z 11007KT 10/02 A3023 RMK A01 T00960015  RH  057%=      5-min Rain = 0
KDO2 150057Z 11007KT 10/02 A3023 RMK A01 T00950015  RH  057%=      5-min Rain = 0
KDO2 150058Z 11008KT 10/02 A3023 RMK A01 T00950015  RH  057%=      5-min Rain = 0
KDO2 150059Z 11008KT 09/02 A3023 RMK A01 T00940015  RH  058%=      5-min Rain = 0
KDO2 150100Z 11008KT 09/02 A3023 RMK A01 T00940015  RH  058%=      5-min Rain = 0
KDO2 150101Z 10008KT 09/02 A3023 RMK A01 T00940015  RH  058%=      5-min Rain = 0
KDO2 150102Z 10007KT 09/02 A3023 RMK A01 T00930015  RH  058%=      5-min Rain = 0
KDO2 150103Z 10007KT 09/02 A3023 RMK A01 T00930016  RH  058%=      5-min Rain = 0
KDO2 150104Z 11008KT 09/02 A3023 RMK A01 T00920015  RH  059%=      5-min Rain = 0
KDO2 150105Z 10008KT 09/02 A3023 RMK A01 T00920016  RH  059%=      5-min Rain = 0
KDO2 150106Z 11007KT 09/02 A3023 RMK A01 T00920016  RH  059%=      5-min Rain = 0
KDO2 150107Z 11008KT 09/02 A3023 RMK A01 T00920015  RH  059%=      5-min Rain = 0
KDO2 150108Z 11008KT 09/02 A3023 RMK A01 T00910015  RH  059%=      5-min Rain = 0
KDO2 150109Z 11008KT 09/02 A3023 RMK A01 T00910015  RH  059%=      5-min Rain = 0
KDO2 150110Z 11008KT 09/02 A3023 RMK A01 T00910015  RH  059%=      5-min Rain = 0
KDO2 150111Z 11008KT 09/02 A3023 RMK A01 T00900015  RH  059%=      5-min Rain = 0
KDO2 150112Z 10008KT 09/02 A3023 RMK A01 T00900015  RH  059%=      5-min Rain = 0
KDO2 150113Z 10008KT 09/02 A3023 RMK A01 T00900015  RH  059%=      5-min Rain = 0
KDO2 150114Z 11007KT 09/02 A3023 RMK A01 T00900015  RH  059%=      5-min Rain = 0
KDO2 150115Z 10008KT 09/02 A3023 RMK A01 T00900015  RH  059%=      5-min Rain = 0
KDO2 150116Z 10008KT 09/01 A3023 RMK A01 T00900014  RH  059%=      5-min Rain = 0
KDO2 150117Z 11008KT 09/01 A3023 RMK A01 T00900014  RH  059%=      5-min Rain = 0
KDO2 150118Z 10008KT 09/01 A3023 RMK A01 T00900014  RH  059%=      5-min Rain = 0
KDO2 150119Z 11008KT 09/01 A3023 RMK A01 T00890014  RH  059%=      5-min Rain = 0
KDO2 150120Z 11008KT 09/01 A3023 RMK A01 T00900014  RH  059%=      5-min Rain = 0
KDO2 150121Z 11008KT 09/01 A3023 RMK A01 T00900014  RH  059%=      5-min Rain = 0
KDO2 150122Z 11007KT 09/01 A3023 RMK A01 T00890014  RH  059%=      5-min Rain = 0
KDO2 150123Z 10008KT 09/01 A3023 RMK A01 T00890014  RH  059%=      5-min Rain = 0
KDO2 150124Z 11008KT 09/01 A3023 RMK A01 T00890014  RH  059%=      5-min Rain = 0
KDO2 150125Z 10007KT 09/01 A3023 RMK A01 T00890014  RH  059%=      5-min Rain = 0
KDO2 150126Z 11008KT 09/01 A3023 RMK A01 T00880014  RH  060%=      5-min Rain = 0
KDO2 150127Z 10007KT 09/01 A3023 RMK A01 T00880014  RH  060%=      5-min Rain = 0
KDO2 150128Z 11007KT 09/01 A3023 RMK A01 T00870014  RH  060%=      5-min Rain = 0
KDO2 150129Z 11007KT 09/01 A3023 RMK A01 T00870014  RH  060%=      5-min Rain = 0
KDO2 150130Z 11007KT 09/02 A3023 RMK A01 T00860015  RH  061%=      5-min Rain = 0
KDO2 150131Z 11007KT 09/01 A3023 RMK A01 T00860014  RH  061%=      5-min Rain = 0
KDO2 150132Z 11007KT 09/01 A3023 RMK A01 T00850014  RH  061%=      5-min Rain = 0
KDO2 150133Z 11007KT 08/01 A3023 RMK A01 T00840014  RH  061%=      5-min Rain = 0
KDO2 150134Z 11006KT 08/01 A3024 RMK A01 T00840014  RH  061%=      5-min Rain = 0
KDO2 150135Z 11006KT 08/01 A3024 RMK A01 T00830014  RH  062%=      5-min Rain = 0
KDO2 150136Z 11006KT 08/01 A3024 RMK A01 T00830014  RH  062%=      5-min Rain = 0
KDO2 150137Z 11006KT 08/01 A3024 RMK A01 T00830014  RH  062%=      5-min Rain = 0
KDO2 150138Z 11007KT 08/01 A3024 RMK A01 T00830014  RH  062%=      5-min Rain = 0
KDO2 150139Z 11006KT 08/01 A3024 RMK A01 T00820014  RH  062%=      5-min Rain = 0
KDO2 150140Z 11007KT 08/01 A3024 RMK A01 T00820014  RH  062%=      5-min Rain = 0
KDO2 150141Z 11007KT 08/01 A3024 RMK A01 T00810014  RH  062%=      5-min Rain = 0
KDO2 150142Z 11007KT 08/01 A3024 RMK A01 T00810014  RH  063%=      5-min Rain = 0
KDO2 150143Z 11007KT 08/01 A3024 RMK A01 T00810014  RH  063%=      5-min Rain = 0
KDO2 150144Z 11007KT 08/01 A3024 RMK A01 T00800014  RH  063%=      5-min Rain = 0
KDO2 150145Z 11008KT 08/01 A3024 RMK A01 T00800014  RH  063%=      5-min Rain = 0
KDO2 150146Z 11008KT 08/01 A3024 RMK A01 T00800014  RH  063%=      5-min Rain = 0
KDO2 150147Z 11007KT 08/02 A3024 RMK A01 T00790015  RH  064%=      5-min Rain = 0
KDO2 150148Z 11007KT 08/02 A3024 RMK A01 T00790015  RH  064%=      5-min Rain = 0
KDO2 150149Z 11007KT 08/02 A3024 RMK A01 T00780015  RH  064%=      5-min Rain = 0
KDO2 150150Z 11007KT 08/02 A3024 RMK A01 T00780015  RH  064%=      5-min Rain = 0
KDO2 150151Z 12007KT 08/02 A3024 RMK A01 T00770015  RH  065%=      5-min Rain = 0
KDO2 150152Z 11007KT 08/02 A3024 RMK A01 T00770015  RH  065%=      5-min Rain = 0
KDO2 150153Z 12007KT 08/02 A3024 RMK A01 T00770015  RH  065%=      5-min Rain = 0
KDO2 150154Z 11007KT 08/02 A3024 RMK A01 T00760015  RH  065%=      5-min Rain = 0
KDO2 150155Z 12006KT 08/02 A3024 RMK A01 T00750015  RH  065%=      5-min Rain = 0
KDO2 150156Z 12006KT 08/02 A3024 RMK A01 T00750015  RH  066%=      5-min Rain = 0
KDO2 150157Z 12006KT 07/02 A3024 RMK A01 T00740015  RH  066%=      5-min Rain = 0
KDO2 150158Z 12006KT 07/02 A3024 RMK A01 T00740015  RH  066%=      5-min Rain = 0
KDO2 150159Z 12007KT 07/02 A3024 RMK A01 T00730015  RH  066%=      5-min Rain = 0
KDO2 150200Z 12007KT 07/02 A3025 RMK A01 T00730015  RH  067%=      5-min Rain = 0
KDO2 150201Z 12007KT 07/02 A3025 RMK A01 T00720015  RH  067%=      5-min Rain = 0
KDO2 150202Z 12007KT 07/02 A3025 RMK A01 T00720015  RH  067%=      5-min Rain = 0
KDO2 150203Z 12007KT 07/01 A3025 RMK A01 T00710014  RH  067%=      5-min Rain = 0
KDO2 150204Z 12007KT 07/01 A3025 RMK A01 T00710014  RH  067%=      5-min Rain = 0
KDO2 150205Z 12007KT 07/01 A3025 RMK A01 T00720014  RH  067%=      5-min Rain = 0
KDO2 150206Z 12007KT 07/01 A3025 RMK A01 T00720014  RH  067%=      5-min Rain = 0
KDO2 150207Z 12007KT 07/01 A3025 RMK A01 T00720014  RH  067%=      5-min Rain = 0
KDO2 150208Z 12007KT 07/01 A3025 RMK A01 T00720014  RH  067%=      5-min Rain = 0
KDO2 150209Z 11007KT 07/01 A3025 RMK A01 T00710014  RH  067%=      5-min Rain = 0
KDO2 150210Z 12007KT 07/01 A3025 RMK A01 T00710014  RH  067%=      5-min Rain = 0
KDO2 150211Z 12007KT 07/01 A3025 RMK A01 T00710014  RH  067%=      5-min Rain = 0
KDO2 150212Z 12007KT 07/01 A3025 RMK A01 T00700014  RH  067%=      5-min Rain = 0
KDO2 150213Z 12007KT 07/01 A3025 RMK A01 T00700014  RH  067%=      5-min Rain = 0
KDO2 150214Z 12007KT 07/01 A3025 RMK A01 T00700014  RH  067%=      5-min Rain = 0
KDO2 150215Z 11007KT 07/01 A3025 RMK A01 T00700013  RH  067%=      5-min Rain = 0
KDO2 150216Z 12008KT 07/01 A3025 RMK A01 T00700013  RH  067%=      5-min Rain = 0
KDO2 150217Z 12008KT 07/01 A3025 RMK A01 T00710013  RH  067%=      5-min Rain = 0
KDO2 150218Z 12008KT 07/01 A3025 RMK A01 T00710013  RH  067%=      5-min Rain = 0
KDO2 150219Z 12009KT 07/01 A3025 RMK A01 T00720013  RH  066%=      5-min Rain = 0
KDO2 150220Z 12009KT 07/01 A3025 RMK A01 T00720013  RH  066%=      5-min Rain = 0
KDO2 150221Z 12008KT 07/01 A3025 RMK A01 T00720013  RH  066%=      5-min Rain = 0
KDO2 150222Z 12009KT 07/01 A3025 RMK A01 T00730013  RH  066%=      5-min Rain = 0
KDO2 150223Z 12009KT 07/01 A3025 RMK A01 T00730013  RH  066%=      5-min Rain = 0
KDO2 150224Z 12009KT 07/01 A3025 RMK A01 T00740013  RH  065%=      5-min Rain = 0
KDO2 150225Z 12009KT 08/01 A3025 RMK A01 T00750013  RH  065%=      5-min Rain = 0
KDO2 150226Z 12010KT 08/01 A3025 RMK A01 T00760013  RH  065%=      5-min Rain = 0
KDO2 150227Z 12009KT 08/01 A3025 RMK A01 T00760013  RH  064%=      5-min Rain = 0
KDO2 150228Z 12010KT 08/01 A3025 RMK A01 T00770014  RH  064%=      5-min Rain = 0
KDO2 150229Z 12010KT 08/01 A3025 RMK A01 T00780014  RH  064%=      5-min Rain = 0
KDO2 150230Z 12010KT 08/01 A3025 RMK A01 T00780014  RH  064%=      5-min Rain = 0
KDO2 150231Z 12010KT 08/01 A3025 RMK A01 T00780014  RH  064%=      5-min Rain = 0
KDO2 150232Z 12010KT 08/01 A3025 RMK A01 T00780014  RH  064%=      5-min Rain = 0
KDO2 150233Z 12009KT 08/01 A3025 RMK A01 T00780014  RH  064%=      5-min Rain = 0
KDO2 150234Z 12010KT 08/01 A3025 RMK A01 T00770014  RH  064%=      5-min Rain = 0
KDO2 150235Z 12010KT 08/01 A3025 RMK A01 T00770014  RH  064%=      5-min Rain = 0
KDO2 150236Z 12009KT 08/01 A3025 RMK A01 T00780014  RH  064%=      5-min Rain = 0
KDO2 150237Z 12009KT 08/01 A3025 RMK A01 T00770014  RH  064%=      5-min Rain = 0
KDO2 150238Z 12008KT 08/01 A3026 RMK A01 T00770014  RH  065%=      5-min Rain = 0
KDO2 150239Z 12008KT 08/01 A3026 RMK A01 T00760014  RH  065%=      5-min Rain = 0
KDO2 150240Z 12008KT 08/01 A3026 RMK A01 T00750014  RH  065%=      5-min Rain = 0
KDO2 150241Z 12008KT 07/01 A3026 RMK A01 T00740014  RH  066%=      5-min Rain = 0
KDO2 150242Z 12009KT 07/02 A3026 RMK A01 T00740015  RH  066%=      5-min Rain = 0
KDO2 150243Z 12008KT 07/01 A3026 RMK A01 T00730014  RH  066%=      5-min Rain = 0
KDO2 150244Z 12008KT 07/01 A3026 RMK A01 T00730014  RH  066%=      5-min Rain = 0
KDO2 150245Z 12008KT 07/01 A3026 RMK A01 T00720014  RH  067%=      5-min Rain = 0
KDO2 150246Z 12008KT 07/02 A3026 RMK A01 T00730015  RH  067%=      5-min Rain = 0
KDO2 150247Z 12008KT 07/01 A3026 RMK A01 T00720014  RH  067%=      5-min Rain = 0
KDO2 150248Z 12008KT 07/01 A3026 RMK A01 T00720014  RH  067%=      5-min Rain = 0
KDO2 150249Z 12008KT 07/02 A3026 RMK A01 T00720015  RH  067%=      5-min Rain = 0
KDO2 150250Z 12008KT 07/01 A3026 RMK A01 T00710014  RH  067%=      5-min Rain = 0
KDO2 150251Z 12007KT 07/02 A3026 RMK A01 T00710015  RH  067%=      5-min Rain = 0
KDO2 150252Z 12007KT 07/02 A3027 RMK A01 T00700015  RH  068%=      5-min Rain = 0
KDO2 150253Z 12007KT 07/02 A3027 RMK A01 T00700015  RH  068%=      5-min Rain = 0
KDO2 150254Z 12007KT 07/02 A3027 RMK A01 T00690015  RH  068%=      5-min Rain = 0
KDO2 150255Z 12007KT 07/02 A3027 RMK A01 T00690015  RH  068%=      5-min Rain = 0
KDO2 150256Z 12007KT 07/02 A3027 RMK A01 T00680015  RH  069%=      5-min Rain = 0
KDO2 150257Z 12007KT 07/01 A3027 RMK A01 T00680014  RH  069%=      5-min Rain = 0
KDO2 150258Z 12007KT 07/02 A3027 RMK A01 T00680015  RH  069%=      5-min Rain = 0
KDO2 150259Z 12007KT 07/02 A3027 RMK A01 T00680015  RH  069%=      5-min Rain = 0
KDO2 150300Z 12007KT 07/01 A3027 RMK A01 T00680014  RH  069%=      5-min Rain = 0
KDO2 150301Z 12007KT 07/02 A3027 RMK A01 T00680015  RH  069%=      5-min Rain = 0
KDO2 150302Z 12008KT 07/01 A3027 RMK A01 T00680014  RH  069%=      5-min Rain = 0
KDO2 150303Z 12007KT 07/01 A3027 RMK A01 T00680014  RH  069%=      5-min Rain = 0
KDO2 150304Z 12008KT 07/01 A3027 RMK A01 T00680014  RH  069%=      5-min Rain = 0
KDO2 150305Z 12008KT 07/01 A3027 RMK A01 T00690014  RH  068%=      5-min Rain = 0
KDO2 150306Z 12008KT 07/01 A3027 RMK A01 T00690014  RH  068%=      5-min Rain = 0
KDO2 150307Z 12008KT 07/02 A3027 RMK A01 T00700015  RH  068%=      5-min Rain = 0
KDO2 150308Z 13008KT 07/02 A3027 RMK A01 T00700015  RH  068%=      5-min Rain = 0
KDO2 150309Z 13008KT 07/02 A3027 RMK A01 T00700015  RH  068%=      5-min Rain = 0
KDO2 150310Z 12008KT 07/02 A3027 RMK A01 T00700015  RH  068%=      5-min Rain = 0
KDO2 150311Z 13008KT 07/02 A3027 RMK A01 T00700015  RH  068%=      5-min Rain = 0
KDO2 150312Z 13007KT 07/02 A3027 RMK A01 T00700015  RH  068%=      5-min Rain = 0
KDO2 150313Z 13007KT 07/02 A3027 RMK A01 T00690015  RH  068%=      5-min Rain = 0
KDO2 150314Z 13007KT 07/02 A3027 RMK A01 T00690015  RH  069%=      5-min Rain = 0
KDO2 150315Z 13007KT 07/02 A3028 RMK A01 T00690015  RH  069%=      5-min Rain = 0
KDO2 150316Z 13007KT 07/02 A3028 RMK A01 T00670015  RH  069%=      5-min Rain = 0
KDO2 150317Z 13007KT 07/02 A3028 RMK A01 T00670015  RH  069%=      5-min Rain = 0
KDO2 150318Z 13007KT 07/02 A3028 RMK A01 T00670015  RH  070%=      5-min Rain = 0
KDO2 150319Z 13007KT 07/02 A3028 RMK A01 T00660015  RH  070%=      5-min Rain = 0
KDO2 150320Z 13007KT 07/02 A3028 RMK A01 T00660015  RH  070%=      5-min Rain = 0
KDO2 150321Z 13007KT 07/02 A3028 RMK A01 T00660015  RH  070%=      5-min Rain = 0
KDO2 150322Z 13007KT 07/02 A3028 RMK A01 T00650015  RH  070%=      5-min Rain = 0
KDO2 150323Z 13007KT 07/02 A3028 RMK A01 T00650015  RH  071%=      5-min Rain = 0
KDO2 150324Z 13007KT 06/02 A3028 RMK A01 T00640015  RH  071%=      5-min Rain = 0
KDO2 150325Z 13007KT 06/02 A3028 RMK A01 T00640015  RH  071%=      5-min Rain = 0
KDO2 150326Z 13007KT 06/02 A3028 RMK A01 T00640015  RH  071%=      5-min Rain = 0
KDO2 150327Z 13007KT 06/02 A3028 RMK A01 T00640015  RH  071%=      5-min Rain = 0
KDO2 150328Z 13007KT 06/02 A3028 RMK A01 T00630015  RH  071%=      5-min Rain = 0
KDO2 150329Z 13007KT 06/02 A3028 RMK A01 T00630015  RH  071%=      5-min Rain = 0
KDO2 150330Z 14008KT 06/02 A3028 RMK A01 T00630015  RH  071%=      5-min Rain = 0
KDO2 150331Z 14007KT 06/02 A3028 RMK A01 T00630015  RH  071%=      5-min Rain = 0
KDO2 150332Z 14007KT 06/02 A3028 RMK A01 T00630015  RH  071%=      5-min Rain = 0
KDO2 150333Z 14008KT 06/02 A3028 RMK A01 T00620015  RH  072%=      5-min Rain = 0
KDO2 150334Z 14008KT 06/02 A3027 RMK A01 T00620016  RH  072%=      5-min Rain = 0
KDO2 150335Z 14008KT 06/02 A3027 RMK A01 T00620015  RH  072%=      5-min Rain = 0
KDO2 150336Z 14008KT 06/02 A3027 RMK A01 T00620015  RH  072%=      5-min Rain = 0
KDO2 150337Z 14009KT 06/02 A3027 RMK A01 T00620016  RH  072%=      5-min Rain = 0
KDO2 150338Z 14008KT 06/02 A3027 RMK A01 T00620016  RH  072%=      5-min Rain = 0
KDO2 150339Z 14008KT 06/02 A3027 RMK A01 T00620016  RH  072%=      5-min Rain = 0
KDO2 150340Z 13008KT 06/02 A3027 RMK A01 T00630016  RH  072%=      5-min Rain = 0
KDO2 150341Z 13008KT 06/02 A3027 RMK A01 T00620016  RH  072%=      5-min Rain = 0
KDO2 150342Z 13008KT 06/02 A3027 RMK A01 T00620016  RH  072%=      5-min Rain = 0
KDO2 150343Z 13008KT 06/02 A3027 RMK A01 T00620016  RH  072%=      5-min Rain = 0
KDO2 150344Z 13008KT 06/02 A3027 RMK A01 T00630017  RH  072%=      5-min Rain = 0
KDO2 150345Z 13008KT 06/02 A3027 RMK A01 T00640017  RH  072%=      5-min Rain = 0
KDO2 150346Z 13009KT 06/02 A3027 RMK A01 T00640017  RH  072%=      5-min Rain = 0
KDO2 150347Z 13009KT 06/02 A3027 RMK A01 T00640017  RH  072%=      5-min Rain = 0
KDO2 150348Z 13009KT 06/02 A3027 RMK A01 T00640017  RH  072%=      5-min Rain = 0
KDO2 150349Z 13009KT 06/02 A3027 RMK A01 T00640016  RH  072%=      5-min Rain = 0
KDO2 150350Z 13008KT 06/02 A3027 RMK A01 T00640017  RH  072%=      5-min Rain = 0
KDO2 150351Z 13009KT 06/02 A3027 RMK A01 T00640017  RH  072%=      5-min Rain = 0
KDO2 150352Z 13009KT 06/02 A3027 RMK A01 T00630016  RH  072%=      5-min Rain = 0
KDO2 150353Z 13009KT 06/02 A3027 RMK A01 T00630016  RH  072%=      5-min Rain = 0
KDO2 150354Z 13008KT 06/02 A3027 RMK A01 T00630016  RH  072%=      5-min Rain = 0
KDO2 150355Z 13008KT 06/02 A3027 RMK A01 T00630016  RH  072%=      5-min Rain = 0
KDO2 150356Z 13007KT 06/02 A3026 RMK A01 T00630017  RH  072%=      5-min Rain = 0
KDO2 150357Z 13007KT 06/02 A3026 RMK A01 T00620016  RH  072%=      5-min Rain = 0
KDO2 150358Z 13007KT 06/02 A3026 RMK A01 T00620016  RH  073%=      5-min Rain = 0
KDO2 150359Z 13007KT 06/02 A3026 RMK A01 T00610016  RH  073%=      5-min Rain = 0
KDO2 150400Z 13007KT 06/02 A3026 RMK A01 T00600016  RH  073%=      5-min Rain = 0
KDO2 150401Z 13007KT 06/02 A3026 RMK A01 T00590016  RH  074%=      5-min Rain = 0
KDO2 150402Z 13006KT 06/02 A3026 RMK A01 T00580016  RH  074%=      5-min Rain = 0
KDO2 150403Z 13006KT 06/02 A3026 RMK A01 T00580015  RH  074%=      5-min Rain = 0
KDO2 150404Z 13006KT 06/02 A3026 RMK A01 T00570015  RH  074%=      5-min Rain = 0
KDO2 150405Z 13007KT 06/02 A3026 RMK A01 T00560015  RH  075%=      5-min Rain = 0
KDO2 150406Z 13007KT 06/02 A3026 RMK A01 T00560015  RH  075%=      5-min Rain = 0
KDO2 150407Z 13006KT 06/02 A3026 RMK A01 T00560015  RH  075%=      5-min Rain = 0
KDO2 150408Z 13006KT 06/02 A3026 RMK A01 T00550015  RH  075%=      5-min Rain = 0
KDO2 150409Z 13006KT 05/02 A3026 RMK A01 T00540015  RH  076%=      5-min Rain = 0
KDO2 150410Z 12006KT 05/02 A3026 RMK A01 T00540015  RH  076%=      5-min Rain = 0
KDO2 150411Z 13006KT 05/02 A3026 RMK A01 T00540015  RH  076%=      5-min Rain = 0
KDO2 150412Z 13005KT 05/02 A3026 RMK A01 T00540015  RH  076%=      5-min Rain = 0
KDO2 150413Z 13005KT 05/02 A3026 RMK A01 T00540015  RH  076%=      5-min Rain = 0
KDO2 150414Z 13005KT 05/02 A3026 RMK A01 T00540015  RH  076%=      5-min Rain = 0
KDO2 150415Z 13005KT 05/02 A3027 RMK A01 T00540015  RH  076%=      5-min Rain = 0
KDO2 150416Z 13006KT 05/01 A3027 RMK A01 T00540014  RH  076%=      5-min Rain = 0
KDO2 150417Z 13006KT 05/01 A3027 RMK A01 T00530014  RH  076%=      5-min Rain = 0
KDO2 150418Z 13006KT 05/01 A3027 RMK A01 T00530014  RH  076%=      5-min Rain = 0
KDO2 150419Z 13006KT 05/01 A3027 RMK A01 T00530014  RH  076%=      5-min Rain = 0
KDO2 150420Z 13006KT 05/01 A3027 RMK A01 T00530014  RH  076%=      5-min Rain = 0
KDO2 150421Z 13006KT 05/01 A3027 RMK A01 T00520014  RH  076%=      5-min Rain = 0
KDO2 150422Z 13006KT 05/01 A3027 RMK A01 T00510013  RH  076%=      5-min Rain = 0
KDO2 150423Z 14005KT 05/01 A3027 RMK A01 T00510013  RH  077%=      5-min Rain = 0
KDO2 150424Z 14005KT 05/01 A3027 RMK A01 T00500013  RH  077%=      5-min Rain = 0
KDO2 150425Z 14005KT 05/01 A3027 RMK A01 T00490013  RH  077%=      5-min Rain = 0
KDO2 150426Z 14005KT 05/01 A3027 RMK A01 T00480012  RH  077%=      5-min Rain = 0
KDO2 150427Z 15004KT 05/01 A3027 RMK A01 T00470011  RH  078%=      5-min Rain = 0
KDO2 150428Z 15004KT 05/01 A3027 RMK A01 T00460010  RH  078%=      5-min Rain = 0
KDO2 150429Z 14005KT 04/01 A3026 RMK A01 T00440010  RH  078%=      5-min Rain = 0
KDO2 150430Z 14004KT 04/01 A3026 RMK A01 T00420009  RH  079%=      5-min Rain = 0
KDO2 150431Z 14004KT 04/01 A3026 RMK A01 T00400007  RH  079%=      5-min Rain = 0
KDO2 150432Z 14004KT 04/01 A3026 RMK A01 T00380007  RH  080%=      5-min Rain = 0
KDO2 150433Z 14004KT 04/01 A3026 RMK A01 T00370007  RH  081%=      5-min Rain = 0
KDO2 150434Z 15004KT 04/01 A3026 RMK A01 T00360007  RH  082%=      5-min Rain = 0
KDO2 150435Z 15004KT 04/01 A3026 RMK A01 T00350008  RH  082%=      5-min Rain = 0
KDO2 150436Z 15005KT 04/01 A3026 RMK A01 T00350009  RH  083%=      5-min Rain = 0
KDO2 150437Z 16005KT 04/01 A3026 RMK A01 T00350009  RH  083%=      5-min Rain = 0
KDO2 150438Z 16005KT 04/01 A3026 RMK A01 T00360009  RH  083%=      5-min Rain = 0
KDO2 150439Z 16005KT 04/01 A3026 RMK A01 T00360009  RH  083%=      5-min Rain = 0
KDO2 150440Z 16005KT 04/01 A3026 RMK A01 T00360009  RH  083%=      5-min Rain = 0
KDO2 150441Z 16005KT 04/01 A3026 RMK A01 T00370009  RH  082%=      5-min Rain = 0
KDO2 150442Z 15005KT 04/01 A3026 RMK A01 T00370010  RH  082%=      5-min Rain = 0
KDO2 150443Z 15005KT 04/01 A3026 RMK A01 T00370009  RH  082%=      5-min Rain = 0
KDO2 150444Z 15006KT 04/01 A3026 RMK A01 T00370008  RH  082%=      5-min Rain = 0
KDO2 150445Z 15006KT 04/01 A3026 RMK A01 T00360008  RH  082%=      5-min Rain = 0
KDO2 150446Z 15006KT 04/01 A3026 RMK A01 T00360007  RH  081%=      5-min Rain = 0
KDO2 150447Z 15006KT 04/01 A3026 RMK A01 T00350006  RH  082%=      5-min Rain = 0
KDO2 150448Z 14006KT 03/01 A3026 RMK A01 T00340006  RH  082%=      5-min Rain = 0
KDO2 150449Z 14006KT 03/01 A3026 RMK A01 T00340006  RH  082%=      5-min Rain = 0
KDO2 150450Z 14006KT 03/01 A3026 RMK A01 T00330006  RH  082%=      5-min Rain = 0
KDO2 150451Z 14006KT 03/01 A3026 RMK A01 T00330006  RH  083%=      5-min Rain = 0
KDO2 150452Z 13007KT 03/01 A3026 RMK A01 T00320006  RH  083%=      5-min Rain = 0
KDO2 150453Z 13007KT 03/01 A3026 RMK A01 T00320006  RH  083%=      5-min Rain = 0
KDO2 150454Z 13007KT 03/01 A3026 RMK A01 T00320006  RH  083%=      5-min Rain = 0
KDO2 150455Z 13007KT 03/01 A3026 RMK A01 T00310005  RH  083%=      5-min Rain = 0
KDO2 150456Z 13006KT 03/01 A3026 RMK A01 T00310005  RH  083%=      5-min Rain = 0
KDO2 150457Z 13006KT 03/00 A3026 RMK A01 T00300004  RH  083%=      5-min Rain = 0
KDO2 150458Z 13006KT 03/01 A3026 RMK A01 T00310005  RH  083%=      5-min Rain = 0
KDO2 150459Z 13006KT 03/01 A3026 RMK A01 T00320006  RH  083%=      5-min Rain = 0
KDO2 150500Z 13006KT 03/01 A3025 RMK A01 T00320006  RH  083%=      5-min Rain = 0
KDO2 150501Z 13006KT 03/01 A3025 RMK A01 T00330006  RH  083%=      5-min Rain = 0
KDO2 150502Z 13006KT 03/01 A3025 RMK A01 T00330006  RH  082%=      5-min Rain = 0
KDO2 150503Z 14006KT 03/01 A3025 RMK A01 T00330005  RH  082%=      5-min Rain = 0
KDO2 150504Z 14006KT 03/01 A3025 RMK A01 T00330005  RH  082%=      5-min Rain = 0
KDO2 150505Z 14006KT 03/01 A3025 RMK A01 T00330005  RH  082%=      5-min Rain = 0
KDO2 150506Z 13006KT 03/01 A3025 RMK A01 T00340005  RH  082%=      5-min Rain = 0
KDO2 150507Z 13006KT 03/01 A3025 RMK A01 T00330005  RH  082%=      5-min Rain = 0
KDO2 150508Z 14007KT 03/01 A3025 RMK A01 T00330005  RH  082%=      5-min Rain = 0
KDO2 150509Z 14006KT 03/01 A3025 RMK A01 T00330005  RH  082%=      5-min Rain = 0
KDO2 150510Z 14007KT 03/01 A3025 RMK A01 T00320005  RH  082%=      5-min Rain = 0
KDO2 150511Z 14007KT 03/00 A3025 RMK A01 T00320004  RH  082%=      5-min Rain = 0
KDO2 150512Z 14007KT 03/00 A3025 RMK A01 T00320004  RH  082%=      5-min Rain = 0
KDO2 150513Z 14007KT 03/00 A3025 RMK A01 T00310004  RH  082%=      5-min Rain = 0
KDO2 150514Z 14007KT 03/00 A3025 RMK A01 T00320003  RH  082%=      5-min Rain = 0
KDO2 150515Z 15008KT 03/00 A3025 RMK A01 T00310003  RH  082%=      5-min Rain = 0
KDO2 150516Z 15008KT 03/00 A3025 RMK A01 T00310003  RH  081%=      5-min Rain = 0
KDO2 150517Z 15008KT 03/00 A3025 RMK A01 T00320002  RH  081%=      5-min Rain = 0
KDO2 150518Z 15007KT 03/00 A3025 RMK A01 T00320002  RH  081%=      5-min Rain = 0
KDO2 150519Z 15007KT 03/00 A3025 RMK A01 T00320002  RH  081%=      5-min Rain = 0
KDO2 150520Z 15007KT 03/00 A3025 RMK A01 T00320002  RH  081%=      5-min Rain = 0
KDO2 150521Z 15007KT 03/00 A3025 RMK A01 T00320002  RH  080%=      5-min Rain = 0
KDO2 150522Z 15007KT 03/00 A3025 RMK A01 T00320002  RH  080%=      5-min Rain = 0
KDO2 150523Z 15007KT 03/00 A3025 RMK A01 T00320002  RH  080%=      5-min Rain = 0
KDO2 150524Z 15007KT 03/00 A3025 RMK A01 T00310001  RH  081%=      5-min Rain = 0
KDO2 150525Z 15008KT 03/00 A3025 RMK A01 T00320001  RH  081%=      5-min Rain = 0
KDO2 150526Z 15008KT 03/00 A3025 RMK A01 T00320001  RH  081%=      5-min Rain = 0
KDO2 150527Z 15008KT 03/00 A3025 RMK A01 T00320001  RH  080%=      5-min Rain = 0
KDO2 150528Z 15008KT 03/00 A3025 RMK A01 T00320001  RH  080%=      5-min Rain = 0
KDO2 150529Z 14008KT 03/00 A3025 RMK A01 T00330000  RH  079%=      5-min Rain = 0
KDO2 150530Z 14008KT 03/00 A3025 RMK A01 T003400-0  RH  079%=      5-min Rain = 0
KDO2 150531Z 14008KT 03/00 A3025 RMK A01 T003400-0  RH  078%=      5-min Rain = 0
KDO2 150532Z 14008KT 04/M00 A3025 RMK A01 T00361001  RH  077%=      5-min Rain = 0
KDO2 150533Z 14007KT 04/M00 A3025 RMK A01 T00371001  RH  076%=      5-min Rain = 0
KDO2 150534Z 14007KT 04/M00 A3025 RMK A01 T00381001  RH  076%=      5-min Rain = 0
KDO2 150535Z 14007KT 04/M00 A3025 RMK A01 T00381001  RH  076%=      5-min Rain = 0
KDO2 150536Z 14007KT 04/M00 A3025 RMK A01 T00381002  RH  075%=      5-min Rain = 0
KDO2 150537Z 14007KT 04/M00 A3025 RMK A01 T00381002  RH  075%=      5-min Rain = 0
KDO2 150538Z 14007KT 04/M00 A3025 RMK A01 T00381002  RH  075%=      5-min Rain = 0
KDO2 150539Z 14007KT 04/M00 A3025 RMK A01 T00391002  RH  074%=      5-min Rain = 0
KDO2 150540Z 14007KT 04/M00 A3025 RMK A01 T00401002  RH  074%=      5-min Rain = 0
KDO2 150541Z 13007KT 04/M00 A3024 RMK A01 T00411003  RH  073%=      5-min Rain = 0
KDO2 150542Z 14007KT 04/M00 A3024 RMK A01 T00421003  RH  073%=      5-min Rain = 0
KDO2 150543Z 13007KT 04/M00 A3024 RMK A01 T00441002  RH  072%=      5-min Rain = 0
KDO2 150544Z 13006KT 04/M00 A3024 RMK A01 T00441003  RH  072%=      5-min Rain = 0
KDO2 150545Z 13006KT 04/M00 A3024 RMK A01 T00441003  RH  071%=      5-min Rain = 0
KDO2 150546Z 13006KT 05/M00 A3024 RMK A01 T00451003  RH  071%=      5-min Rain = 0
KDO2 150547Z 13005KT 05/M00 A3024 RMK A01 T00461003  RH  071%=      5-min Rain = 0
KDO2 150548Z 13005KT 05/M00 A3024 RMK A01 T00461003  RH  071%=      5-min Rain = 0
KDO2 150549Z 13004KT 05/M00 A3024 RMK A01 T00471003  RH  070%=      5-min Rain = 0
KDO2 150550Z 13004KT 05/M00 A3024 RMK A01 T00461003  RH  070%=      5-min Rain = 0
KDO2 150551Z 13004KT 05/M00 A3024 RMK A01 T00471003  RH  070%=      5-min Rain = 0
KDO2 150552Z 13004KT 05/M00 A3025 RMK A01 T00461003  RH  070%=      5-min Rain = 0
KDO2 150553Z 13004KT 05/M00 A3025 RMK A01 T00471003  RH  070%=      5-min Rain = 0
KDO2 150554Z 14004KT 05/M00 A3025 RMK A01 T00471003  RH  070%=      5-min Rain = 0
KDO2 150555Z 14004KT 05/M00 A3025 RMK A01 T00471003  RH  070%=      5-min Rain = 0
KDO2 150556Z 14004KT 05/M00 A3025 RMK A01 T00481003  RH  070%=      5-min Rain = 0
KDO2 150557Z 14004KT 05/M00 A3025 RMK A01 T00481003  RH  069%=      5-min Rain = 0
KDO2 150558Z 14004KT 05/M00 A3025 RMK A01 T00491003  RH  069%=      5-min Rain = 0
KDO2 150559Z 14004KT 05/M00 A3025 RMK A01 T00491003  RH  069%=      5-min Rain = 0

Page generated in 0.114 seconds.